Wetterdaten: Mittwoch, 08.03.2017
Datum Zeit Temp. A. Feuchte A. Luftdruck Regen Wind Richtung Richtung Sonnenschein ET UV Solar Taupunkt Windchill Windben Empfang
08.03.2017 00:00 3,3 C 92 % 1020,4 hPa 0,0 l/m 14,0 km/h (3 Bft) SW 223 0 min 0,000 mm 0,0 UV-I 0 W/m 2,1 C -2,4 C 19,3 km/h (3 Bft) 95,12 %
08.03.2017 00:02 3,3 C 92 % 1020,5 hPa 0,0 l/m 12,9 km/h (3 Bft) W-SW 244 0 min 0,000 mm 0,0 UV-I 0 W/m 2,1 C -1,8 C 19,3 km/h (3 Bft) 22,22 %
08.03.2017 00:04 3,3 C 92 % 1020,5 hPa 0,0 l/m 11,5 km/h (2 Bft) W-SW 248 0 min 0,000 mm 0,0 UV-I 0 W/m 2,1 C -0,9 C 17,7 km/h (3 Bft) 51,72 %
08.03.2017 00:06 3,3 C 92 % 1020,5 hPa 0,0 l/m 12,8 km/h (3 Bft) SW 232 0 min 0,000 mm 0,0 UV-I 0 W/m 2,1 C -1,7 C 20,9 km/h (4 Bft) 98,08 %
08.03.2017 00:08 3,3 C 91 % 1020,5 hPa 0,0 l/m 12,1 km/h (2 Bft) W-SW 238 0 min 0,000 mm 0,0 UV-I 0 W/m 2,0 C -1,3 C 19,3 km/h (3 Bft) 97,62 %
08.03.2017 00:10 3,3 C 91 % 1020,6 hPa 0,0 l/m 11,5 km/h (2 Bft) W-SW 250 0 min 0,000 mm 0,0 UV-I 0 W/m 2,0 C -0,9 C 14,5 km/h (3 Bft) 97,73 %
08.03.2017 00:12 3,3 C 91 % 1020,6 hPa 0,0 l/m 9,9 km/h (2 Bft) SW 229 0 min 0,000 mm 0,0 UV-I 0 W/m 2,0 C 0,3 C 16,1 km/h (3 Bft) 98,11 %
08.03.2017 00:14 3,3 C 91 % 1020,6 hPa 0,0 l/m 12,0 km/h (2 Bft) SW 232 0 min 0,000 mm 0,0 UV-I 0 W/m 2,0 C -1,2 C 19,3 km/h (3 Bft) 97,56 %
08.03.2017 00:16 3,3 C 91 % 1020,6 hPa 0,0 l/m 10,5 km/h (2 Bft) W-SW 253 0 min 0,000 mm 0,0 UV-I 0 W/m 2,0 C -0,2 C 16,1 km/h (3 Bft) 94,34 %
08.03.2017 00:18 3,3 C 92 % 1020,6 hPa 0,0 l/m 11,6 km/h (2 Bft) SW 231 0 min 0,000 mm 0,0 UV-I 0 W/m 2,1 C -0,9 C 16,1 km/h (3 Bft) 100,00 %
08.03.2017 00:20 3,3 C 92 % 1020,7 hPa 0,0 l/m 9,2 km/h (2 Bft) SW 236 0 min 0,000 mm 0,0 UV-I 0 W/m 2,1 C 0,8 C 12,9 km/h (3 Bft) 98,00 %
08.03.2017 00:22 3,3 C 92 % 1020,6 hPa 0,0 l/m 10,3 km/h (2 Bft) W-SW 238 0 min 0,000 mm 0,0 UV-I 0 W/m 2,1 C -0,0 C 14,5 km/h (3 Bft) 95,12 %
08.03.2017 00:24 3,2 C 92 % 1020,6 hPa 0,0 l/m 10,6 km/h (2 Bft) SW 217 0 min 0,000 mm 0,0 UV-I 0 W/m 2,0 C -0,4 C 19,3 km/h (3 Bft) 100,00 %
08.03.2017 00:26 3,2 C 92 % 1020,6 hPa 0,0 l/m 12,8 km/h (3 Bft) W-SW 249 0 min 0,000 mm 0,0 UV-I 0 W/m 2,0 C -1,8 C 19,3 km/h (3 Bft) 93,18 %
08.03.2017 00:28 3,2 C 92 % 1020,7 hPa 0,0 l/m 10,9 km/h (2 Bft) W-SW 250 0 min 0,000 mm 0,0 UV-I 0 W/m 2,0 C -0,6 C 16,1 km/h (3 Bft) 96,23 %
08.03.2017 00:30 3,2 C 92 % 1020,7 hPa 0,0 l/m 11,3 km/h (2 Bft) SW 215 0 min 0,000 mm 0,0 UV-I 0 W/m 2,0 C -0,8 C 17,7 km/h (3 Bft) 96,00 %
08.03.2017 00:32 3,2 C 92 % 1020,7 hPa 0,0 l/m 11,5 km/h (2 Bft) W-SW 237 0 min 0,000 mm 0,0 UV-I 0 W/m 2,0 C -1,0 C 17,7 km/h (3 Bft) 94,74 %
08.03.2017 00:34 3,2 C 92 % 1020,7 hPa 0,0 l/m 14,8 km/h (3 Bft) SW 233 0 min 0,000 mm 0,0 UV-I 0 W/m 2,0 C -3,0 C 22,5 km/h (4 Bft) 96,23 %
08.03.2017 00:36 3,2 C 92 % 1020,7 hPa 0,0 l/m 10,1 km/h (2 Bft) W-SW 246 0 min 0,000 mm 0,0 UV-I 0 W/m 2,0 C 0,0 C 14,5 km/h (3 Bft) 95,74 %
08.03.2017 00:38 3,2 C 92 % 1020,8 hPa 0,0 l/m 9,5 km/h (2 Bft) SW 219 0 min 0,000 mm 0,0 UV-I 0 W/m 2,0 C 0,5 C 14,5 km/h (3 Bft) 97,56 %
08.03.2017 00:40 3,3 C 92 % 1020,8 hPa 0,0 l/m 12,8 km/h (3 Bft) W-SW 249 0 min 0,000 mm 0,0 UV-I 0 W/m 2,1 C -1,7 C 17,7 km/h (3 Bft) 96,23 %
08.03.2017 00:42 3,2 C 92 % 1020,9 hPa 0,0 l/m 9,8 km/h (2 Bft) W-SW 242 0 min 0,000 mm 0,0 UV-I 0 W/m 2,0 C 0,2 C 14,5 km/h (3 Bft) 93,18 %
08.03.2017 00:44 3,2 C 92 % 1020,9 hPa 0,0 l/m 10,0 km/h (2 Bft) W-SW 240 0 min 0,000 mm 0,0 UV-I 0 W/m 2,0 C 0,1 C 17,7 km/h (3 Bft) 96,23 %
08.03.2017 00:46 3,3 C 92 % 1020,9 hPa 0,0 l/m 9,0 km/h (2 Bft) SW 231 0 min 0,000 mm 0,0 UV-I 0 W/m 2,1 C 1,0 C 16,1 km/h (3 Bft) 95,74 %
08.03.2017 00:48 3,3 C 91 % 1021,0 hPa 0,0 l/m 14,7 km/h (3 Bft) SW 225 0 min 0,000 mm 0,0 UV-I 0 W/m 2,0 C -2,8 C 19,3 km/h (3 Bft) 97,44 %
08.03.2017 00:50 3,3 C 91 % 1021,0 hPa 0,0 l/m 13,0 km/h (3 Bft) W-NW 282 0 min 0,000 mm 0,0 UV-I 0 W/m 2,0 C -1,8 C 19,3 km/h (3 Bft) 94,34 %
08.03.2017 00:52 3,3 C 91 % 1021,1 hPa 0,0 l/m 11,7 km/h (2 Bft) W-SW 241 0 min 0,000 mm 0,0 UV-I 0 W/m 2,0 C -1,0 C 16,1 km/h (3 Bft) 97,87 %
08.03.2017 00:54 3,3 C 91 % 1021,2 hPa 0,0 l/m 10,7 km/h (2 Bft) W 259 0 min 0,000 mm 0,0 UV-I 0 W/m 2,0 C -0,3 C 16,1 km/h (3 Bft) 94,74 %
08.03.2017 00:56 3,3 C 91 % 1021,1 hPa 0,0 l/m 8,4 km/h (2 Bft) W 265 0 min 0,000 mm 0,0 UV-I 0 W/m 2,0 C 1,5 C 12,9 km/h (3 Bft) 96,43 %
08.03.2017 00:58 3,3 C 91 % 1021,2 hPa 0,0 l/m 11,1 km/h (2 Bft) W-SW 258 0 min 0,000 mm 0,0 UV-I 0 W/m 2,0 C -0,6 C 16,1 km/h (3 Bft) 95,45 %
08.03.2017 01:00 3,4 C 91 % 1021,2 hPa 0,0 l/m 9,9 km/h (2 Bft) SW 221 0 min 0,000 mm 0,0 UV-I 0 W/m 2,1 C 0,4 C 12,9 km/h (3 Bft) 97,56 %
08.03.2017 01:02 3,4 C 91 % 1021,2 hPa 0,0 l/m 7,6 km/h (2 Bft) S-SW 213 0 min 0,000 mm 0,0 UV-I 0 W/m 2,1 C 2,3 C 12,9 km/h (3 Bft) 97,37 %
08.03.2017 01:04 3,4 C 91 % 1021,2 hPa 0,0 l/m 9,7 km/h (2 Bft) W-SW 252 0 min 0,000 mm 0,0 UV-I 0 W/m 2,1 C 0,5 C 14,5 km/h (3 Bft) 100,00 %
08.03.2017 01:06 3,4 C 91 % 1021,2 hPa 0,0 l/m 9,2 km/h (2 Bft) SW 220 0 min 0,000 mm 0,0 UV-I 0 W/m 2,1 C 0,9 C 12,9 km/h (3 Bft) 100,00 %
08.03.2017 01:08 3,4 C 91 % 1021,3 hPa 0,0 l/m 8,5 km/h (2 Bft) W-SW 238 0 min 0,000 mm 0,0 UV-I 0 W/m 2,1 C 1,5 C 11,3 km/h (2 Bft) 98,11 %
08.03.2017 01:10 3,4 C 91 % 1021,3 hPa 0,0 l/m 10,0 km/h (2 Bft) SW 235 0 min 0,000 mm 0,0 UV-I 0 W/m 2,1 C 0,3 C 16,1 km/h (3 Bft) 100,00 %
08.03.2017 01:12 3,4 C 91 % 1021,3 hPa 0,0 l/m 7,8 km/h (2 Bft) W-SW 244 0 min 0,000 mm 0,0 UV-I 0 W/m 2,1 C 2,1 C 11,3 km/h (2 Bft) 98,21 %
08.03.2017 01:14 3,4 C 91 % 1021,3 hPa 0,0 l/m 9,4 km/h (2 Bft) W-SW 252 0 min 0,000 mm 0,0 UV-I 0 W/m 2,1 C 0,8 C 14,5 km/h (3 Bft) 100,00 %
08.03.2017 01:16 3,4 C 91 % 1021,3 hPa 0,0 l/m 10,0 km/h (2 Bft) W 267 0 min 0,000 mm 0,0 UV-I 0 W/m 2,1 C 0,3 C 16,1 km/h (3 Bft) 96,30 %
08.03.2017 01:18 3,4 C 91 % 1021,4 hPa 0,0 l/m 8,6 km/h (2 Bft) SW 236 0 min 0,000 mm 0,0 UV-I 0 W/m 2,1 C 1,4 C 12,9 km/h (3 Bft) 98,36 %
08.03.2017 01:20 3,5 C 91 % 1021,4 hPa 0,0 l/m 8,0 km/h (2 Bft) W-SW 253 0 min 0,000 mm 0,0 UV-I 0 W/m 2,2 C 2,0 C 14,5 km/h (3 Bft) 97,22 %
08.03.2017 01:22 3,5 C 91 % 1021,4 hPa 0,0 l/m 10,9 km/h (2 Bft) W 259 0 min 0,000 mm 0,0 UV-I 0 W/m 2,2 C -0,2 C 14,5 km/h (3 Bft) 98,44 %
08.03.2017 01:24 3,5 C 91 % 1021,4 hPa 0,0 l/m 9,4 km/h (2 Bft) SW 216 0 min 0,000 mm 0,0 UV-I 0 W/m 2,2 C 0,9 C 16,1 km/h (3 Bft) 100,00 %
08.03.2017 01:26 3,5 C 91 % 1021,4 hPa 0,0 l/m 10,2 km/h (2 Bft) W-SW 252 0 min 0,000 mm 0,0 UV-I 0 W/m 2,2 C 0,3 C 14,5 km/h (3 Bft) 92,00 %
08.03.2017 01:28 3,5 C 91 % 1021,4 hPa 0,0 l/m 10,5 km/h (2 Bft) W-SW 240 0 min 0,000 mm 0,0 UV-I 0 W/m 2,2 C 0,1 C 16,1 km/h (3 Bft) 97,56 %
08.03.2017 01:30 3,5 C 91 % 1021,4 hPa 0,0 l/m 7,4 km/h (2 Bft) SW 234 0 min 0,000 mm 0,0 UV-I 0 W/m 2,2 C 2,6 C 14,5 km/h (3 Bft) 98,21 %
08.03.2017 01:32 3,5 C 91 % 1021,4 hPa 0,0 l/m 9,9 km/h (2 Bft) S-SW 201 0 min 0,000 mm 0,0 UV-I 0 W/m 2,2 C 0,5 C 14,5 km/h (3 Bft) 97,87 %
08.03.2017 01:34 3,4 C 92 % 1021,4 hPa 0,0 l/m 11,4 km/h (2 Bft) W-SW 254 0 min 0,000 mm 0,0 UV-I 0 W/m 2,2 C -0,7 C 16,1 km/h (3 Bft) 100,00 %
08.03.2017 01:36 3,5 C 92 % 1021,5 hPa 0,0 l/m 11,7 km/h (2 Bft) W-SW 253 0 min 0,000 mm 0,0 UV-I 0 W/m 2,3 C -0,8 C 14,5 km/h (3 Bft) 97,37 %
08.03.2017 01:38 3,4 C 92 % 1021,5 hPa 0,0 l/m 9,3 km/h (2 Bft) W-SW 241 0 min 0,000 mm 0,0 UV-I 0 W/m 2,2 C 0,8 C 12,9 km/h (3 Bft) 98,21 %
08.03.2017 01:40 3,4 C 92 % 1021,5 hPa 0,0 l/m 10,6 km/h (2 Bft) SW 234 0 min 0,000 mm 0,0 UV-I 0 W/m 2,2 C -0,1 C 16,1 km/h (3 Bft) 94,74 %
08.03.2017 01:42 3,4 C 92 % 1021,5 hPa 0,0 l/m 11,8 km/h (2 Bft) SW 234 0 min 0,000 mm 0,0 UV-I 0 W/m 2,2 C -1,0 C 16,1 km/h (3 Bft) 100,00 %
08.03.2017 01:44 3,4 C 92 % 1021,5 hPa 0,0 l/m 10,8 km/h (2 Bft) W-SW 238 0 min 0,000 mm 0,0 UV-I 0 W/m 2,2 C -0,3 C 17,7 km/h (3 Bft) 96,00 %
08.03.2017 01:46 3,4 C 92 % 1021,5 hPa 0,0 l/m 11,9 km/h (2 Bft) SW 224 0 min 0,000 mm 0,0 UV-I 0 W/m 2,2 C -1,0 C 17,7 km/h (3 Bft) 96,23 %
08.03.2017 01:48 3,4 C 92 % 1021,5 hPa 0,0 l/m 10,8 km/h (2 Bft) W-SW 243 0 min 0,000 mm 0,0 UV-I 0 W/m 2,2 C -0,3 C 14,5 km/h (3 Bft) 100,00 %
08.03.2017 01:50 3,5 C 92 % 1021,6 hPa 0,0 l/m 11,0 km/h (2 Bft) W-SW 248 0 min 0,000 mm 0,0 UV-I 0 W/m 2,3 C -0,3 C 17,7 km/h (3 Bft) 97,73 %
08.03.2017 01:52 3,5 C 92 % 1021,5 hPa 0,0 l/m 10,7 km/h (2 Bft) W 260 0 min 0,000 mm 0,0 UV-I 0 W/m 2,3 C -0,1 C 14,5 km/h (3 Bft) 100,00 %
08.03.2017 01:54 3,4 C 92 % 1021,5 hPa 0,0 l/m 8,2 km/h (2 Bft) W-SW 242 0 min 0,000 mm 0,0 UV-I 0 W/m 2,2 C 1,7 C 12,9 km/h (3 Bft) 96,23 %
08.03.2017 01:56 3,4 C 92 % 1021,6 hPa 0,0 l/m 7,8 km/h (2 Bft) W-SW 244 0 min 0,000 mm 0,0 UV-I 0 W/m 2,2 C 2,1 C 12,9 km/h (3 Bft) 100,00 %
08.03.2017 01:58 3,4 C 92 % 1021,6 hPa 0,0 l/m 8,2 km/h (2 Bft) W-SW 248 0 min 0,000 mm 0,0 UV-I 0 W/m 2,2 C 1,7 C 11,3 km/h (2 Bft) 100,00 %
08.03.2017 02:00 3,4 C 92 % 1021,6 hPa 0,0 l/m 9,1 km/h (2 Bft) W-SW 257 0 min 0,000 mm 0,0 UV-I 0 W/m 2,2 C 1,0 C 11,3 km/h (2 Bft) 98,00 %
08.03.2017 02:02 3,4 C 92 % 1021,6 hPa 0,0 l/m 7,0 km/h (2 Bft) W-SW 252 0 min 0,000 mm 0,0 UV-I 0 W/m 2,2 C 2,8 C 11,3 km/h (2 Bft) 100,00 %
08.03.2017 02:04 3,4 C 92 % 1021,6 hPa 0,0 l/m 9,1 km/h (2 Bft) SW 230 0 min 0,000 mm 0,0 UV-I 0 W/m 2,2 C 1,0 C 14,5 km/h (3 Bft) 100,00 %
08.03.2017 02:06 3,4 C 92 % 1021,6 hPa 0,0 l/m 6,9 km/h (2 Bft) W 263 0 min 0,000 mm 0,0 UV-I 0 W/m 2,2 C 2,9 C 11,3 km/h (2 Bft) 96,36 %
08.03.2017 02:08 3,5 C 92 % 1021,6 hPa 0,0 l/m 7,5 km/h (2 Bft) W-SW 248 0 min 0,000 mm 0,0 UV-I 0 W/m 2,3 C 2,5 C 11,3 km/h (2 Bft) 100,00 %
08.03.2017 02:10 3,5 C 92 % 1021,6 hPa 0,0 l/m 8,0 km/h (2 Bft) W 261 0 min 0,000 mm 0,0 UV-I 0 W/m 2,3 C 2,0 C 14,5 km/h (3 Bft) 97,56 %
08.03.2017 02:12 3,5 C 92 % 1021,7 hPa 0,0 l/m 9,3 km/h (2 Bft) W-SW 242 0 min 0,000 mm 0,0 UV-I 0 W/m 2,3 C 1,0 C 16,1 km/h (3 Bft) 100,00 %
08.03.2017 02:14 3,5 C 92 % 1021,7 hPa 0,0 l/m 5,8 km/h (2 Bft) SW 236 0 min 0,000 mm 0,0 UV-I 0 W/m 2,3 C 3,5 C 9,7 km/h (2 Bft) 97,56 %
08.03.2017 02:16 3,6 C 92 % 1021,7 hPa 0,0 l/m 8,2 km/h (2 Bft) SW 228 0 min 0,000 mm 0,0 UV-I 0 W/m 2,4 C 2,0 C 12,9 km/h (3 Bft) 98,11 %
08.03.2017 02:18 3,6 C 92 % 1021,7 hPa 0,0 l/m 7,8 km/h (2 Bft) W-SW 246 0 min 0,000 mm 0,0 UV-I 0 W/m 2,4 C 2,3 C 11,3 km/h (2 Bft) 95,12 %
08.03.2017 02:20 3,6 C 92 % 1021,7 hPa 0,0 l/m 7,6 km/h (2 Bft) W-SW 254 0 min 0,000 mm 0,0 UV-I 0 W/m 2,4 C 2,5 C 11,3 km/h (2 Bft) 96,23 %
08.03.2017 02:22 3,6 C 92 % 1021,7 hPa 0,0 l/m 6,0 km/h (2 Bft) SW 222 0 min 0,000 mm 0,0 UV-I 0 W/m 2,4 C 3,6 C 9,7 km/h (2 Bft) 100,00 %
08.03.2017 02:24 3,6 C 92 % 1021,7 hPa 0,0 l/m 5,8 km/h (2 Bft) W-SW 254 0 min 0,000 mm 0,0 UV-I 0 W/m 2,4 C 3,6 C 8,0 km/h (2 Bft) 96,23 %
08.03.2017 02:26 3,6 C 92 % 1021,8 hPa 0,0 l/m 7,2 km/h (2 Bft) W 259 0 min 0,000 mm 0,0 UV-I 0 W/m 2,4 C 2,9 C 12,9 km/h (3 Bft) 97,56 %
08.03.2017 02:28 3,6 C 92 % 1021,8 hPa 0,0 l/m 6,9 km/h (2 Bft) W-SW 252 0 min 0,000 mm 0,0 UV-I 0 W/m 2,4 C 3,1 C 11,3 km/h (2 Bft) 94,34 %
08.03.2017 02:30 3,6 C 92 % 1021,8 hPa 0,0 l/m 6,4 km/h (2 Bft) SW 216 0 min 0,000 mm 0,0 UV-I 0 W/m 2,4 C 3,6 C 9,7 km/h (2 Bft) 97,87 %
08.03.2017 02:32 3,6 C 92 % 1021,9 hPa 0,0 l/m 7,5 km/h (2 Bft) SW 227 0 min 0,000 mm 0,0 UV-I 0 W/m 2,4 C 2,6 C 12,9 km/h (3 Bft) 97,56 %
08.03.2017 02:34 3,6 C 92 % 1021,9 hPa 0,0 l/m 7,2 km/h (2 Bft) W-SW 250 0 min 0,000 mm 0,0 UV-I 0 W/m 2,4 C 2,9 C 12,9 km/h (3 Bft) 95,45 %
08.03.2017 02:36 3,6 C 92 % 1021,9 hPa 0,0 l/m 8,4 km/h (2 Bft) SW 234 0 min 0,000 mm 0,0 UV-I 0 W/m 2,4 C 1,8 C 14,5 km/h (3 Bft) 98,00 %
08.03.2017 02:38 3,6 C 92 % 1021,9 hPa 0,0 l/m 6,4 km/h (2 Bft) W-SW 255 0 min 0,000 mm 0,0 UV-I 0 W/m 2,4 C 3,6 C 11,3 km/h (2 Bft) 95,45 %
08.03.2017 02:40 3,6 C 92 % 1022,0 hPa 0,0 l/m 6,6 km/h (2 Bft) W-SW 237 0 min 0,000 mm 0,0 UV-I 0 W/m 2,4 C 3,4 C 9,7 km/h (2 Bft) 97,78 %
08.03.2017 02:42 3,6 C 92 % 1021,9 hPa 0,0 l/m 6,5 km/h (2 Bft) SW 221 0 min 0,000 mm 0,0 UV-I 0 W/m 2,4 C 3,5 C 11,3 km/h (2 Bft) 92,73 %
08.03.2017 02:44 3,6 C 92 % 1022,0 hPa 0,0 l/m 5,9 km/h (2 Bft) W-SW 242 0 min 0,000 mm 0,0 UV-I 0 W/m 2,4 C 3,6 C 8,0 km/h (2 Bft) 100,00 %
08.03.2017 02:46 3,6 C 92 % 1022,0 hPa 0,0 l/m 7,2 km/h (2 Bft) W-SW 241 0 min 0,000 mm 0,0 UV-I 0 W/m 2,4 C 2,9 C 9,7 km/h (2 Bft) 96,36 %
08.03.2017 02:48 3,6 C 92 % 1022,0 hPa 0,0 l/m 6,4 km/h (2 Bft) W-SW 248 0 min 0,000 mm 0,0 UV-I 0 W/m 2,4 C 3,6 C 14,5 km/h (3 Bft) 97,78 %
08.03.2017 02:50 3,6 C 92 % 1022,0 hPa 0,0 l/m 7,2 km/h (2 Bft) W-SW 238 0 min 0,000 mm 0,0 UV-I 0 W/m 2,4 C 2,9 C 9,7 km/h (2 Bft) 100,00 %
08.03.2017 02:52 3,6 C 92 % 1022,0 hPa 0,0 l/m 6,3 km/h (2 Bft) W-SW 250 0 min 0,000 mm 0,0 UV-I 0 W/m 2,4 C 3,6 C 9,7 km/h (2 Bft) 96,92 %
08.03.2017 02:54 3,7 C 92 % 1022,0 hPa 0,0 l/m 6,0 km/h (2 Bft) SW 229 0 min 0,000 mm 0,0 UV-I 0 W/m 2,5 C 3,7 C 8,0 km/h (2 Bft) 98,11 %
08.03.2017 02:56 3,7 C 92 % 1021,9 hPa 0,0 l/m 7,0 km/h (2 Bft) W-SW 250 0 min 0,000 mm 0,0 UV-I 0 W/m 2,5 C 3,1 C 11,3 km/h (2 Bft) 95,45 %
08.03.2017 02:58 3,7 C 92 % 1022,0 hPa 0,0 l/m 6,9 km/h (2 Bft) SW 234 0 min 0,000 mm 0,0 UV-I 0 W/m 2,5 C 3,2 C 9,7 km/h (2 Bft) 95,12 %
08.03.2017 03:00 3,7 C 92 % 1022,0 hPa 0,0 l/m 7,6 km/h (2 Bft) W-SW 240 0 min 0,000 mm 0,0 UV-I 0 W/m 2,5 C 2,6 C 12,9 km/h (3 Bft) 94,34 %
08.03.2017 03:02 3,7 C 92 % 1022,0 hPa 0,0 l/m 5,9 km/h (2 Bft) W-SW 256 0 min 0,000 mm 0,0 UV-I 0 W/m 2,5 C 3,7 C 8,0 km/h (2 Bft) 97,56 %
08.03.2017 03:04 3,6 C 92 % 1022,0 hPa 0,0 l/m 6,3 km/h (2 Bft) W 259 0 min 0,000 mm 0,0 UV-I 0 W/m 2,4 C 3,6 C 9,7 km/h (2 Bft) 98,00 %
08.03.2017 03:06 3,7 C 92 % 1022,0 hPa 0,0 l/m 6,0 km/h (2 Bft) SW 232 0 min 0,000 mm 0,0 UV-I 0 W/m 2,5 C 3,7 C 8,0 km/h (2 Bft) 98,00 %
08.03.2017 03:08 3,7 C 92 % 1022,0 hPa 0,0 l/m 6,5 km/h (2 Bft) W-SW 258 0 min 0,000 mm 0,0 UV-I 0 W/m 2,5 C 3,6 C 11,3 km/h (2 Bft) 94,74 %
08.03.2017 03:10 3,7 C 92 % 1022,0 hPa 0,0 l/m 5,7 km/h (1 Bft) SW 226 0 min 0,000 mm 0,0 UV-I 0 W/m 2,5 C 3,7 C 9,7 km/h (2 Bft) 100,00 %
08.03.2017 03:12 3,7 C 92 % 1022,0 hPa 0,0 l/m 5,6 km/h (1 Bft) W-SW 254 0 min 0,000 mm 0,0 UV-I 0 W/m 2,5 C 3,7 C 8,0 km/h (2 Bft) 97,14 %
08.03.2017 03:14 3,7 C 92 % 1022,0 hPa 0,0 l/m 5,0 km/h (1 Bft) W-SW 246 0 min 0,000 mm 0,0 UV-I 0 W/m 2,5 C 3,7 C 8,0 km/h (2 Bft) 100,00 %
08.03.2017 03:16 3,7 C 92 % 1022,1 hPa 0,0 l/m 5,8 km/h (2 Bft) W-SW 243 0 min 0,000 mm 0,0 UV-I 0 W/m 2,5 C 3,7 C 8,0 km/h (2 Bft) 98,21 %
08.03.2017 03:18 3,7 C 92 % 1022,1 hPa 0,0 l/m 4,8 km/h (1 Bft) SW 217 0 min 0,000 mm 0,0 UV-I 0 W/m 2,5 C 3,7 C 8,0 km/h (2 Bft) 96,00 %
08.03.2017 03:20 3,7 C 92 % 1022,1 hPa 0,0 l/m 4,4 km/h (1 Bft) W-SW 237 0 min 0,000 mm 0,0 UV-I 0 W/m 2,5 C 3,7 C 6,4 km/h (2 Bft) 97,37 %
08.03.2017 03:22 3,7 C 92 % 1022,1 hPa 0,0 l/m 5,2 km/h (1 Bft) W-SW 246 0 min 0,000 mm 0,0 UV-I 0 W/m 2,5 C 3,7 C 8,0 km/h (2 Bft) 96,23 %
08.03.2017 03:24 3,7 C 92 % 1022,1 hPa 0,0 l/m 4,1 km/h (1 Bft) SW 229 0 min 0,000 mm 0,0 UV-I 0 W/m 2,5 C 3,7 C 6,4 km/h (2 Bft) 97,44 %
08.03.2017 03:26 3,7 C 92 % 1022,2 hPa 0,0 l/m 4,7 km/h (1 Bft) W-SW 238 0 min 0,000 mm 0,0 UV-I 0 W/m 2,5 C 3,7 C 6,4 km/h (2 Bft) 94,34 %
08.03.2017 03:29 3,7 C 92 % 1022,2 hPa 0,0 l/m 5,4 km/h (1 Bft) W-SW 252 0 min 0,000 mm 0,0 UV-I 0 W/m 2,5 C 3,7 C 8,0 km/h (2 Bft) 94,03 %
08.03.2017 03:30 3,7 C 92 % 1022,2 hPa 0,0 l/m 5,3 km/h (1 Bft) SW 225 0 min 0,000 mm 0,0 UV-I 0 W/m 2,5 C 3,7 C 6,4 km/h (2 Bft) 95,83 %
08.03.2017 03:32 3,7 C 92 % 1022,2 hPa 0,0 l/m 3,0 km/h (1 Bft) SW 225 0 min 0,000 mm 0,0 UV-I 0 W/m 2,5 C 3,7 C 4,8 km/h (1 Bft) 96,00 %
08.03.2017 03:34 3,7 C 92 % 1022,2 hPa 0,0 l/m 3,5 km/h (1 Bft) S-SW 201 0 min 0,000 mm 0,0 UV-I 0 W/m 2,5 C 3,7 C 6,4 km/h (2 Bft) 97,87 %
08.03.2017 03:36 3,7 C 92 % 1022,3 hPa 0,0 l/m 2,4 km/h (1 Bft) S-SW 201 0 min 0,000 mm 0,0 UV-I 0 W/m 2,5 C 3,7 C 4,8 km/h (1 Bft) 94,74 %
08.03.2017 03:38 3,7 C 92 % 1022,3 hPa 0,0 l/m 2,4 km/h (1 Bft) S-SW 201 0 min 0,000 mm 0,0 UV-I 0 W/m 2,5 C 3,7 C 3,2 km/h (1 Bft) 98,00 %
08.03.2017 03:40 3,7 C 92 % 1022,3 hPa 0,0 l/m 1,5 km/h (1 Bft) S-SW 201 0 min 0,000 mm 0,0 UV-I 0 W/m 2,5 C 3,7 C 3,2 km/h (1 Bft) 93,62 %
08.03.2017 03:42 3,7 C 92 % 1022,3 hPa 0,0 l/m 3,6 km/h (1 Bft) S-SW 206 0 min 0,000 mm 0,0 UV-I 0 W/m 2,5 C 3,7 C 6,4 km/h (2 Bft) 98,04 %
08.03.2017 03:44 3,7 C 92 % 1022,4 hPa 0,0 l/m 3,2 km/h (1 Bft) S-SW 206 0 min 0,000 mm 0,0 UV-I 0 W/m 2,5 C 3,7 C 4,8 km/h (1 Bft) 96,00 %
08.03.2017 03:46 3,7 C 92 % 1022,4 hPa 0,0 l/m 2,7 km/h (1 Bft) S-SW 206 0 min 0,000 mm 0,0 UV-I 0 W/m 2,5 C 3,7 C 4,8 km/h (1 Bft) 93,62 %
08.03.2017 03:48 3,7 C 92 % 1022,4 hPa 0,0 l/m 3,3 km/h (1 Bft) S-SW 207 0 min 0,000 mm 0,0 UV-I 0 W/m 2,5 C 3,7 C 4,8 km/h (1 Bft) 100,00 %
08.03.2017 03:50 3,7 C 92 % 1022,4 hPa 0,0 l/m 3,7 km/h (1 Bft) S-SW 208 0 min 0,000 mm 0,0 UV-I 0 W/m 2,5 C 3,7 C 4,8 km/h (1 Bft) 94,00 %
08.03.2017 03:52 3,7 C 92 % 1022,4 hPa 0,0 l/m 4,3 km/h (1 Bft) SW 232 0 min 0,000 mm 0,0 UV-I 0 W/m 2,5 C 3,7 C 6,4 km/h (2 Bft) 98,04 %
08.03.2017 03:54 3,7 C 92 % 1022,4 hPa 0,0 l/m 4,0 km/h (1 Bft) W-SW 243 0 min 0,000 mm 0,0 UV-I 0 W/m 2,5 C 3,7 C 4,8 km/h (1 Bft) 95,74 %
08.03.2017 03:56 3,7 C 92 % 1022,4 hPa 0,0 l/m 4,9 km/h (1 Bft) W-SW 243 0 min 0,000 mm 0,0 UV-I 0 W/m 2,5 C 3,7 C 8,0 km/h (2 Bft) 97,37 %
08.03.2017 03:58 3,7 C 92 % 1022,4 hPa 0,0 l/m 6,0 km/h (2 Bft) W-SW 248 0 min 0,000 mm 0,0 UV-I 0 W/m 2,5 C 3,7 C 11,3 km/h (2 Bft) 98,11 %
08.03.2017 04:00 3,7 C 92 % 1022,4 hPa 0,0 l/m 6,6 km/h (2 Bft) W-SW 257 0 min 0,000 mm 0,0 UV-I 0 W/m 2,5 C 3,5 C 11,3 km/h (2 Bft) 97,87 %
08.03.2017 04:02 3,7 C 92 % 1022,5 hPa 0,0 l/m 4,8 km/h (1 Bft) W-SW 246 0 min 0,000 mm 0,0 UV-I 0 W/m 2,5 C 3,7 C 6,4 km/h (2 Bft) 100,00 %
08.03.2017 04:04 3,7 C 92 % 1022,5 hPa 0,0 l/m 6,6 km/h (2 Bft) SW 234 0 min 0,000 mm 0,0 UV-I 0 W/m 2,5 C 3,5 C 9,7 km/h (2 Bft) 91,49 %
08.03.2017 04:06 3,7 C 92 % 1022,5 hPa 0,0 l/m 4,8 km/h (1 Bft) SW 232 0 min 0,000 mm 0,0 UV-I 0 W/m 2,5 C 3,7 C 8,0 km/h (2 Bft) 92,31 %
08.03.2017 04:08 3,7 C 92 % 1022,6 hPa 0,0 l/m 5,3 km/h (1 Bft) SW 220 0 min 0,000 mm 0,0 UV-I 0 W/m 2,5 C 3,7 C 8,0 km/h (2 Bft) 98,00 %
08.03.2017 04:10 3,7 C 92 % 1022,6 hPa 0,0 l/m 6,3 km/h (2 Bft) SW 230 0 min 0,000 mm 0,0 UV-I 0 W/m 2,5 C 3,7 C 8,0 km/h (2 Bft) 94,34 %
08.03.2017 04:12 3,7 C 92 % 1022,6 hPa 0,0 l/m 5,1 km/h (1 Bft) SW 225 0 min 0,000 mm 0,0 UV-I 0 W/m 2,5 C 3,7 C 8,0 km/h (2 Bft) 94,74 %
08.03.2017 04:14 3,7 C 92 % 1022,7 hPa 0,0 l/m 7,0 km/h (2 Bft) W-SW 240 0 min 0,000 mm 0,0 UV-I 0 W/m 2,5 C 3,1 C 11,3 km/h (2 Bft) 93,62 %
08.03.2017 04:16 3,7 C 92 % 1022,7 hPa 0,0 l/m 5,7 km/h (1 Bft) S-SW 211 0 min 0,000 mm 0,0 UV-I 0 W/m 2,5 C 3,7 C 9,7 km/h (2 Bft) 95,74 %
08.03.2017 04:18 3,8 C 92 % 1022,7 hPa 0,0 l/m 8,0 km/h (2 Bft) SW 223 0 min 0,000 mm 0,0 UV-I 0 W/m 2,6 C 2,3 C 9,7 km/h (2 Bft) 98,11 %
08.03.2017 04:20 3,8 C 92 % 1022,7 hPa 0,0 l/m 6,4 km/h (2 Bft) SW 233 0 min 0,000 mm 0,0 UV-I 0 W/m 2,6 C 3,8 C 9,7 km/h (2 Bft) 95,12 %
08.03.2017 04:22 3,8 C 92 % 1022,8 hPa 0,0 l/m 5,9 km/h (2 Bft) SW 225 0 min 0,000 mm 0,0 UV-I 0 W/m 2,6 C 3,8 C 8,0 km/h (2 Bft) 95,74 %
08.03.2017 04:24 3,8 C 92 % 1022,8 hPa 0,0 l/m 5,1 km/h (1 Bft) SW 223 0 min 0,000 mm 0,0 UV-I 0 W/m 2,6 C 3,8 C 8,0 km/h (2 Bft) 98,21 %
08.03.2017 04:26 3,8 C 92 % 1022,8 hPa 0,0 l/m 4,8 km/h (1 Bft) SW 234 0 min 0,000 mm 0,0 UV-I 0 W/m 2,6 C 3,8 C 8,0 km/h (2 Bft) 93,62 %
08.03.2017 04:28 3,8 C 92 % 1022,8 hPa 0,0 l/m 7,9 km/h (2 Bft) W-SW 239 0 min 0,000 mm 0,0 UV-I 0 W/m 2,6 C 2,4 C 11,3 km/h (2 Bft) 97,73 %
08.03.2017 04:30 3,8 C 92 % 1022,8 hPa 0,0 l/m 4,9 km/h (1 Bft) W-SW 256 0 min 0,000 mm 0,0 UV-I 0 W/m 2,6 C 3,8 C 8,0 km/h (2 Bft) 95,74 %
08.03.2017 04:32 3,8 C 92 % 1022,8 hPa 0,0 l/m 3,9 km/h (1 Bft) W 261 0 min 0,000 mm 0,0 UV-I 0 W/m 2,6 C 3,8 C 8,0 km/h (2 Bft) 97,37 %
08.03.2017 04:34 3,8 C 92 % 1022,9 hPa 0,0 l/m 6,5 km/h (2 Bft) W 267 0 min 0,000 mm 0,0 UV-I 0 W/m 2,6 C 3,7 C 12,9 km/h (3 Bft) 96,43 %
08.03.2017 04:36 3,8 C 92 % 1022,8 hPa 0,0 l/m 5,4 km/h (1 Bft) W 267 0 min 0,000 mm 0,0 UV-I 0 W/m 2,6 C 3,8 C 9,7 km/h (2 Bft) 97,37 %
08.03.2017 04:38 3,8 C 92 % 1022,9 hPa 0,0 l/m 4,5 km/h (1 Bft) W-SW 243 0 min 0,000 mm 0,0 UV-I 0 W/m 2,6 C 3,8 C 9,7 km/h (2 Bft) 98,11 %
08.03.2017 04:40 3,8 C 92 % 1022,9 hPa 0,0 l/m 6,9 km/h (2 Bft) W 260 0 min 0,000 mm 0,0 UV-I 0 W/m 2,6 C 3,3 C 12,9 km/h (3 Bft) 95,24 %
08.03.2017 04:42 3,8 C 92 % 1022,9 hPa 0,0 l/m 6,5 km/h (2 Bft) W 264 0 min 0,000 mm 0,0 UV-I 0 W/m 2,6 C 3,7 C 12,9 km/h (3 Bft) 98,18 %
08.03.2017 04:44 3,8 C 92 % 1023,0 hPa 0,0 l/m 5,9 km/h (2 Bft) W-SW 242 0 min 0,000 mm 0,0 UV-I 0 W/m 2,6 C 3,8 C 11,3 km/h (2 Bft) 93,62 %
08.03.2017 04:46 3,8 C 92 % 1023,0 hPa 0,0 l/m 7,0 km/h (2 Bft) W-SW 240 0 min 0,000 mm 0,0 UV-I 0 W/m 2,6 C 3,3 C 12,9 km/h (3 Bft) 97,44 %
08.03.2017 04:48 3,8 C 92 % 1023,1 hPa 0,0 l/m 6,0 km/h (2 Bft) W-SW 244 0 min 0,000 mm 0,0 UV-I 0 W/m 2,6 C 3,8 C 11,3 km/h (2 Bft) 98,11 %
08.03.2017 04:50 3,8 C 91 % 1023,1 hPa 0,0 l/m 6,9 km/h (2 Bft) W-SW 240 0 min 0,000 mm 0,0 UV-I 0 W/m 2,5 C 3,3 C 12,9 km/h (3 Bft) 98,00 %
08.03.2017 04:52 3,8 C 92 % 1023,1 hPa 0,0 l/m 6,7 km/h (2 Bft) W 264 0 min 0,000 mm 0,0 UV-I 0 W/m 2,6 C 3,5 C 11,3 km/h (2 Bft) 95,45 %
08.03.2017 04:54 3,8 C 92 % 1023,1 hPa 0,0 l/m 9,2 km/h (2 Bft) W 264 0 min 0,000 mm 0,0 UV-I 0 W/m 2,6 C 1,4 C 12,9 km/h (3 Bft) 98,00 %
08.03.2017 04:56 3,8 C 92 % 1023,1 hPa 0,0 l/m 10,2 km/h (2 Bft) S-SW 213 0 min 0,000 mm 0,0 UV-I 0 W/m 2,6 C 0,6 C 14,5 km/h (3 Bft) 97,56 %
08.03.2017 04:58 3,8 C 92 % 1023,1 hPa 0,0 l/m 9,1 km/h (2 Bft) W 261 0 min 0,000 mm 0,0 UV-I 0 W/m 2,6 C 1,4 C 14,5 km/h (3 Bft) 97,73 %
08.03.2017 05:00 3,8 C 92 % 1023,2 hPa 0,0 l/m 7,5 km/h (2 Bft) W 265 0 min 0,000 mm 0,0 UV-I 0 W/m 2,6 C 2,8 C 11,3 km/h (2 Bft) 96,23 %
08.03.2017 05:02 3,8 C 92 % 1023,1 hPa 0,0 l/m 8,6 km/h (2 Bft) W-SW 243 0 min 0,000 mm 0,0 UV-I 0 W/m 2,6 C 1,8 C 12,9 km/h (3 Bft) 97,56 %
08.03.2017 05:04 3,8 C 92 % 1023,2 hPa 0,0 l/m 5,9 km/h (2 Bft) W-SW 250 0 min 0,000 mm 0,0 UV-I 0 W/m 2,6 C 3,8 C 9,7 km/h (2 Bft) 94,00 %
08.03.2017 05:06 3,8 C 91 % 1023,2 hPa 0,0 l/m 6,4 km/h (2 Bft) W-SW 254 0 min 0,000 mm 0,0 UV-I 0 W/m 2,5 C 3,8 C 12,9 km/h (3 Bft) 92,68 %
08.03.2017 05:08 3,8 C 91 % 1023,2 hPa 0,0 l/m 6,6 km/h (2 Bft) W-SW 248 0 min 0,000 mm 0,0 UV-I 0 W/m 2,5 C 3,6 C 11,3 km/h (2 Bft) 98,11 %
08.03.2017 05:10 3,8 C 91 % 1023,2 hPa 0,0 l/m 7,3 km/h (2 Bft) W-SW 252 0 min 0,000 mm 0,0 UV-I 0 W/m 2,5 C 3,0 C 12,9 km/h (3 Bft) 95,12 %
08.03.2017 05:12 3,8 C 91 % 1023,3 hPa 0,0 l/m 7,3 km/h (2 Bft) W-SW 246 0 min 0,000 mm 0,0 UV-I 0 W/m 2,5 C 3,0 C 11,3 km/h (2 Bft) 96,43 %
08.03.2017 05:14 3,8 C 91 % 1023,3 hPa 0,0 l/m 6,9 km/h (2 Bft) W-SW 246 0 min 0,000 mm 0,0 UV-I 0 W/m 2,5 C 3,3 C 11,3 km/h (2 Bft) 100,00 %
08.03.2017 05:16 3,8 C 92 % 1023,3 hPa 0,0 l/m 6,6 km/h (2 Bft) W-SW 258 0 min 0,000 mm 0,0 UV-I 0 W/m 2,6 C 3,6 C 11,3 km/h (2 Bft) 96,00 %
08.03.2017 05:18 3,8 C 92 % 1023,3 hPa 0,0 l/m 7,7 km/h (2 Bft) W-SW 248 0 min 0,000 mm 0,0 UV-I 0 W/m 2,6 C 2,6 C 11,3 km/h (2 Bft) 100,00 %
08.03.2017 05:20 3,7 C 92 % 1023,4 hPa 0,0 l/m 8,4 km/h (2 Bft) W-SW 244 0 min 0,000 mm 0,0 UV-I 0 W/m 2,5 C 1,9 C 12,9 km/h (3 Bft) 97,78 %
08.03.2017 05:22 3,7 C 92 % 1023,4 hPa 0,0 l/m 7,7 km/h (2 Bft) W 262 0 min 0,000 mm 0,0 UV-I 0 W/m 2,5 C 2,5 C 11,3 km/h (2 Bft) 96,15 %
08.03.2017 05:24 3,7 C 92 % 1023,4 hPa 0,0 l/m 7,3 km/h (2 Bft) W-SW 250 0 min 0,000 mm 0,0 UV-I 0 W/m 2,5 C 2,9 C 12,9 km/h (3 Bft) 100,00 %
08.03.2017 05:26 3,7 C 92 % 1023,5 hPa 0,0 l/m 7,4 km/h (2 Bft) W-SW 245 0 min 0,000 mm 0,0 UV-I 0 W/m 2,5 C 2,8 C 14,5 km/h (3 Bft) 98,18 %
08.03.2017 05:28 3,8 C 91 % 1023,5 hPa 0,0 l/m 9,2 km/h (2 Bft) SW 236 0 min 0,000 mm 0,0 UV-I 0 W/m 2,5 C 1,4 C 14,5 km/h (3 Bft) 100,00 %
08.03.2017 05:30 3,8 C 91 % 1023,6 hPa 0,0 l/m 6,9 km/h (2 Bft) SW 233 0 min 0,000 mm 0,0 UV-I 0 W/m 2,5 C 3,3 C 12,9 km/h (3 Bft) 98,11 %
08.03.2017 05:32 3,8 C 91 % 1023,7 hPa 0,0 l/m 9,4 km/h (2 Bft) SW 233 0 min 0,000 mm 0,0 UV-I 0 W/m 2,5 C 1,2 C 14,5 km/h (3 Bft) 97,56 %
08.03.2017 05:34 3,8 C 91 % 1023,7 hPa 0,0 l/m 10,2 km/h (2 Bft) SW 230 0 min 0,000 mm 0,0 UV-I 0 W/m 2,5 C 0,6 C 14,5 km/h (3 Bft) 98,11 %
08.03.2017 05:36 3,8 C 91 % 1023,7 hPa 0,0 l/m 9,0 km/h (2 Bft) W-SW 247 0 min 0,000 mm 0,0 UV-I 0 W/m 2,5 C 1,5 C 12,9 km/h (3 Bft) 97,56 %
08.03.2017 05:38 3,8 C 91 % 1023,7 hPa 0,0 l/m 7,7 km/h (2 Bft) W-SW 245 0 min 0,000 mm 0,0 UV-I 0 W/m 2,5 C 2,6 C 12,9 km/h (3 Bft) 100,00 %
08.03.2017 05:40 3,8 C 91 % 1023,7 hPa 0,0 l/m 7,3 km/h (2 Bft) W 267 0 min 0,000 mm 0,0 UV-I 0 W/m 2,5 C 3,0 C 12,9 km/h (3 Bft) 100,00 %
08.03.2017 05:42 3,8 C 91 % 1023,8 hPa 0,0 l/m 5,8 km/h (2 Bft) W-SW 237 0 min 0,000 mm 0,0 UV-I 0 W/m 2,5 C 3,8 C 9,7 km/h (2 Bft) 98,11 %
08.03.2017 05:44 3,8 C 91 % 1023,8 hPa 0,0 l/m 9,0 km/h (2 Bft) W-SW 248 0 min 0,000 mm 0,0 UV-I 0 W/m 2,5 C 1,5 C 12,9 km/h (3 Bft) 97,87 %
08.03.2017 05:46 3,8 C 91 % 1023,8 hPa 0,0 l/m 6,2 km/h (2 Bft) W-SW 250 0 min 0,000 mm 0,0 UV-I 0 W/m 2,5 C 3,8 C 11,3 km/h (2 Bft) 95,74 %
08.03.2017 05:48 3,8 C 91 % 1023,9 hPa 0,0 l/m 6,3 km/h (2 Bft) W-SW 254 0 min 0,000 mm 0,0 UV-I 0 W/m 2,5 C 3,8 C 11,3 km/h (2 Bft) 97,87 %
08.03.2017 05:50 3,8 C 91 % 1023,9 hPa 0,0 l/m 6,7 km/h (2 Bft) W-NW 283 0 min 0,000 mm 0,0 UV-I 0 W/m 2,5 C 3,5 C 11,3 km/h (2 Bft) 100,00 %
08.03.2017 05:52 3,8 C 91 % 1023,9 hPa 0,0 l/m 5,3 km/h (1 Bft) W 261 0 min 0,000 mm 0,0 UV-I 0 W/m 2,5 C 3,8 C 6,4 km/h (2 Bft) 100,00 %
08.03.2017 05:54 3,8 C 91 % 1023,9 hPa 0,0 l/m 7,5 km/h (2 Bft) W-SW 240 0 min 0,000 mm 0,0 UV-I 0 W/m 2,5 C 2,8 C 12,9 km/h (3 Bft) 95,74 %
08.03.2017 05:56 3,8 C 91 % 1023,9 hPa 0,0 l/m 6,5 km/h (2 Bft) W-SW 255 0 min 0,000 mm 0,0 UV-I 0 W/m 2,5 C 3,7 C 12,9 km/h (3 Bft) 95,12 %
08.03.2017 05:58 3,7 C 91 % 1023,9 hPa 0,0 l/m 5,6 km/h (1 Bft) SW 235 0 min 0,000 mm 0,0 UV-I 0 W/m 2,4 C 3,7 C 9,7 km/h (2 Bft) 92,31 %
08.03.2017 06:00 3,7 C 91 % 1024,0 hPa 0,0 l/m 7,1 km/h (2 Bft) W-SW 246 0 min 0,000 mm 0,0 UV-I 0 W/m 2,4 C 3,1 C 11,3 km/h (2 Bft) 98,18 %
08.03.2017 06:02 3,7 C 91 % 1024,0 hPa 0,0 l/m 5,6 km/h (1 Bft) SW 229 0 min 0,000 mm 0,0 UV-I 0 W/m 2,4 C 3,7 C 11,3 km/h (2 Bft) 97,62 %
08.03.2017 06:04 3,7 C 91 % 1024,0 hPa 0,0 l/m 4,8 km/h (1 Bft) W-SW 251 0 min 0,000 mm 0,0 UV-I 0 W/m 2,4 C 3,7 C 6,4 km/h (2 Bft) 98,11 %
08.03.2017 06:06 3,7 C 91 % 1024,0 hPa 0,0 l/m 5,9 km/h (2 Bft) W 262 0 min 0,000 mm 0,0 UV-I 0 W/m 2,4 C 3,7 C 9,7 km/h (2 Bft) 100,00 %
08.03.2017 06:08 3,7 C 91 % 1024,1 hPa 0,0 l/m 5,0 km/h (1 Bft) SW 232 0 min 0,000 mm 0,0 UV-I 0 W/m 2,4 C 3,7 C 6,4 km/h (2 Bft) 100,00 %
08.03.2017 06:10 3,7 C 91 % 1024,2 hPa 0,0 l/m 4,7 km/h (1 Bft) W-SW 240 0 min 0,000 mm 0,0 UV-I 0 W/m 2,4 C 3,7 C 6,4 km/h (2 Bft) 97,56 %
08.03.2017 06:12 3,7 C 91 % 1024,2 hPa 0,0 l/m 4,8 km/h (1 Bft) W-SW 239 0 min 0,000 mm 0,0 UV-I 0 W/m 2,4 C 3,7 C 6,4 km/h (2 Bft) 94,00 %
08.03.2017 06:14 3,7 C 91 % 1024,2 hPa 0,0 l/m 4,3 km/h (1 Bft) W-SW 239 0 min 0,000 mm 0,0 UV-I 0 W/m 2,4 C 3,7 C 6,4 km/h (2 Bft) 100,00 %
08.03.2017 06:16 3,7 C 92 % 1024,1 hPa 0,0 l/m 5,4 km/h (1 Bft) SW 226 0 min 0,000 mm 0,0 UV-I 0 W/m 2,5 C 3,7 C 8,0 km/h (2 Bft) 97,37 %
08.03.2017 06:18 3,7 C 92 % 1024,2 hPa 0,0 l/m 5,3 km/h (1 Bft) SW 225 0 min 0,000 mm 0,0 UV-I 0 W/m 2,5 C 3,7 C 8,0 km/h (2 Bft) 96,23 %
08.03.2017 06:20 3,7 C 92 % 1024,1 hPa 0,0 l/m 5,7 km/h (1 Bft) SW 230 0 min 0,000 mm 0,0 UV-I 0 W/m 2,5 C 3,7 C 6,4 km/h (2 Bft) 100,00 %
08.03.2017 06:22 3,7 C 92 % 1024,2 hPa 0,0 l/m 5,8 km/h (2 Bft) SW 219 0 min 0,000 mm 0,0 UV-I 0 W/m 2,5 C 3,7 C 8,0 km/h (2 Bft) 100,00 %
08.03.2017 06:24 3,7 C 92 % 1024,1 hPa 0,0 l/m 5,1 km/h (1 Bft) SW 227 0 min 0,000 mm 0,0 UV-I 0 W/m 2,5 C 3,7 C 8,0 km/h (2 Bft) 98,11 %
08.03.2017 06:26 3,7 C 92 % 1024,2 hPa 0,0 l/m 5,3 km/h (1 Bft) SW 234 0 min 0,000 mm 0,0 UV-I 0 W/m 2,5 C 3,7 C 8,0 km/h (2 Bft) 98,00 %
08.03.2017 06:28 3,7 C 91 % 1024,2 hPa 0,0 l/m 5,5 km/h (1 Bft) SW 235 0 min 0,000 mm 0,0 UV-I 4 W/m 2,4 C 3,7 C 8,0 km/h (2 Bft) 100,00 %
08.03.2017 06:30 3,7 C 92 % 1024,2 hPa 0,0 l/m 6,1 km/h (2 Bft) W-SW 242 0 min 0,000 mm 0,0 UV-I 5 W/m 2,5 C 3,7 C 8,0 km/h (2 Bft) 97,87 %
08.03.2017 06:32 3,7 C 92 % 1024,2 hPa 0,0 l/m 5,4 km/h (1 Bft) SW 232 0 min 0,000 mm 0,0 UV-I 5 W/m 2,5 C 3,7 C 8,0 km/h (2 Bft) 100,00 %
08.03.2017 06:34 3,7 C 92 % 1024,2 hPa 0,0 l/m 5,8 km/h (2 Bft) SW 227 0 min 0,000 mm 0,0 UV-I 5 W/m 2,5 C 3,7 C 8,0 km/h (2 Bft) 97,87 %
08.03.2017 06:36 3,7 C 92 % 1024,2 hPa 0,0 l/m 5,5 km/h (1 Bft) SW 231 0 min 0,000 mm 0,0 UV-I 6 W/m 2,5 C 3,7 C 6,4 km/h (2 Bft) 98,11 %
08.03.2017 06:38 3,7 C 92 % 1024,2 hPa 0,0 l/m 6,2 km/h (2 Bft) SW 226 0 min 0,000 mm 0,0 UV-I 7 W/m 2,5 C 3,7 C 8,0 km/h (2 Bft) 95,45 %
08.03.2017 06:40 3,6 C 92 % 1024,2 hPa 0,0 l/m 6,7 km/h (2 Bft) SW 229 0 min 0,000 mm 0,0 UV-I 9 W/m 2,4 C 3,3 C 8,0 km/h (2 Bft) 100,00 %
08.03.2017 06:42 3,6 C 92 % 1024,2 hPa 0,0 l/m 6,0 km/h (2 Bft) SW 229 2 min 0,000 mm 0,0 UV-I 12 W/m 2,4 C 3,6 C 9,7 km/h (2 Bft) 97,78 %
08.03.2017 06:44 3,6 C 92 % 1024,2 hPa 0,0 l/m 7,1 km/h (2 Bft) W-SW 238 2 min 0,000 mm 0,0 UV-I 13 W/m 2,4 C 3,0 C 11,3 km/h (2 Bft) 96,15 %
08.03.2017 06:46 3,6 C 92 % 1024,2 hPa 0,0 l/m 7,6 km/h (2 Bft) SW 231 0 min 0,000 mm 0,0 UV-I 16 W/m 2,4 C 2,5 C 9,7 km/h (2 Bft) 92,86 %
08.03.2017 06:48 3,5 C 92 % 1024,2 hPa 0,0 l/m 8,7 km/h (2 Bft) W-SW 253 0 min 0,000 mm 0,0 UV-I 19 W/m 2,3 C 1,4 C 11,3 km/h (2 Bft) 95,12 %
08.03.2017 06:50 3,5 C 92 % 1024,2 hPa 0,0 l/m 8,7 km/h (2 Bft) SW 219 0 min 0,000 mm 0,0 UV-I 22 W/m 2,3 C 1,4 C 11,3 km/h (2 Bft) 94,64 %
08.03.2017 06:52 3,4 C 92 % 1024,2 hPa 0,0 l/m 7,0 km/h (2 Bft) W-SW 242 0 min 0,000 mm 0,0 UV-I 23 W/m 2,2 C 2,8 C 9,7 km/h (2 Bft) 94,74 %
08.03.2017 06:54 3,4 C 92 % 1024,2 hPa 0,0 l/m 5,7 km/h (1 Bft) SW 230 0 min 0,000 mm 0,0 UV-I 26 W/m 2,2 C 3,4 C 8,0 km/h (2 Bft) 97,73 %
08.03.2017 06:56 3,4 C 92 % 1024,2 hPa 0,0 l/m 6,3 km/h (2 Bft) SW 225 0 min 0,000 mm 0,0 UV-I 27 W/m 2,2 C 3,4 C 9,7 km/h (2 Bft) 98,11 %
08.03.2017 06:58 3,4 C 92 % 1024,3 hPa 0,0 l/m 5,9 km/h (2 Bft) SW 222 0 min 0,000 mm 0,0 UV-I 25 W/m 2,2 C 3,4 C 8,0 km/h (2 Bft) 94,59 %
08.03.2017 07:00 3,4 C 92 % 1024,3 hPa 0,0 l/m 6,3 km/h (2 Bft) SW 225 0 min 0,000 mm 0,0 UV-I 23 W/m 2,2 C 3,4 C 8,0 km/h (2 Bft) 96,23 %
08.03.2017 07:02 3,3 C 92 % 1024,3 hPa 0,0 l/m 5,8 km/h (2 Bft) SW 220 0 min 0,000 mm 0,0 UV-I 25 W/m 2,1 C 3,3 C 9,7 km/h (2 Bft) 90,57 %
08.03.2017 07:04 3,3 C 93 % 1024,3 hPa 0,0 l/m 4,4 km/h (1 Bft) W 259 0 min 0,000 mm 0,0 UV-I 25 W/m 2,3 C 3,3 C 6,4 km/h (2 Bft) 96,00 %
08.03.2017 07:06 3,3 C 93 % 1024,3 hPa 0,0 l/m 6,5 km/h (2 Bft) SW 214 0 min 0,000 mm 0,0 UV-I 26 W/m 2,3 C 3,2 C 8,0 km/h (2 Bft) 97,73 %
08.03.2017 07:08 3,3 C 93 % 1024,3 hPa 0,0 l/m 7,0 km/h (2 Bft) W-SW 246 0 min 0,000 mm 0,0 UV-I 26 W/m 2,3 C 2,7 C 9,7 km/h (2 Bft) 97,87 %
08.03.2017 07:10 3,3 C 93 % 1024,3 hPa 0,0 l/m 5,3 km/h (1 Bft) SW 225 0 min 0,000 mm 0,0 UV-I 25 W/m 2,3 C 3,3 C 6,4 km/h (2 Bft) 92,00 %
08.03.2017 07:12 3,4 C 93 % 1024,3 hPa 0,0 l/m 4,8 km/h (1 Bft) SW 215 0 min 0,000 mm 0,0 UV-I 23 W/m 2,4 C 3,4 C 6,4 km/h (2 Bft) 89,47 %
08.03.2017 07:14 3,4 C 93 % 1024,3 hPa 0,0 l/m 6,1 km/h (2 Bft) SW 225 0 min 0,000 mm 0,0 UV-I 19 W/m 2,4 C 3,4 C 11,3 km/h (2 Bft) 96,23 %
08.03.2017 07:16 3,4 C 93 % 1024,4 hPa 0,0 l/m 6,4 km/h (2 Bft) W-SW 238 0 min 0,000 mm 0,0 UV-I 21 W/m 2,4 C 3,4 C 9,7 km/h (2 Bft) 97,73 %
08.03.2017 07:18 3,4 C 93 % 1024,4 hPa 0,0 l/m 5,8 km/h (2 Bft) SW 225 0 min 0,000 mm 0,0 UV-I 24 W/m 2,4 C 3,4 C 8,0 km/h (2 Bft) 94,87 %
08.03.2017 07:20 3,4 C 93 % 1024,4 hPa 0,0 l/m 5,7 km/h (1 Bft) SW 229 0 min 0,000 mm 0,0 UV-I 32 W/m 2,4 C 3,4 C 8,0 km/h (2 Bft) 98,28 %
08.03.2017 07:22 3,5 C 93 % 1024,4 hPa 0,0 l/m 4,0 km/h (1 Bft) W-SW 248 0 min 0,000 mm 0,0 UV-I 38 W/m 2,5 C 3,5 C 6,4 km/h (2 Bft) 100,00 %
08.03.2017 07:24 3,6 C 93 % 1024,4 hPa 0,0 l/m 5,5 km/h (1 Bft) SW 227 0 min 0,000 mm 0,0 UV-I 47 W/m 2,6 C 3,6 C 8,0 km/h (2 Bft) 96,55 %
08.03.2017 07:26 3,6 C 93 % 1024,4 hPa 0,0 l/m 5,8 km/h (2 Bft) W-SW 240 0 min 0,000 mm 0,0 UV-I 52 W/m 2,6 C 3,6 C 9,7 km/h (2 Bft) 97,22 %
08.03.2017 07:28 3,7 C 93 % 1024,3 hPa 0,0 l/m 5,8 km/h (2 Bft) SW 236 0 min 0,000 mm 0,0 UV-I 47 W/m 2,7 C 3,7 C 8,0 km/h (2 Bft) 98,00 %
08.03.2017 07:30 3,7 C 93 % 1024,3 hPa 0,0 l/m 7,1 km/h (2 Bft) SW 228 0 min 0,000 mm 0,0 UV-I 53 W/m 2,7 C 3,1 C 9,7 km/h (2 Bft) 100,00 %
08.03.2017 07:32 3,7 C 92 % 1024,4 hPa 0,0 l/m 6,7 km/h (2 Bft) W-SW 240 0 min 0,000 mm 0,0 UV-I 53 W/m 2,5 C 3,4 C 9,7 km/h (2 Bft) 94,34 %
08.03.2017 07:34 3,8 C 92 % 1024,4 hPa 0,0 l/m 8,3 km/h (2 Bft) S-SW 212 0 min 0,000 mm 0,0 UV-I 53 W/m 2,6 C 2,1 C 12,9 km/h (3 Bft) 95,12 %
08.03.2017 07:36 3,8 C 92 % 1024,4 hPa 0,0 l/m 5,4 km/h (1 Bft) SW 232 0 min 0,000 mm 0,0 UV-I 59 W/m 2,6 C 3,8 C 9,7 km/h (2 Bft) 98,11 %
08.03.2017 07:38 3,9 C 92 % 1024,4 hPa 0,0 l/m 7,8 km/h (2 Bft) SW 222 0 min 0,000 mm 0,0 UV-I 63 W/m 2,7 C 2,6 C 12,9 km/h (3 Bft) 92,68 %
08.03.2017 07:40 3,9 C 92 % 1024,4 hPa 0,0 l/m 8,0 km/h (2 Bft) W-SW 256 0 min 0,000 mm 0,0 UV-I 57 W/m 2,7 C 2,4 C 11,3 km/h (2 Bft) 93,62 %
08.03.2017 07:42 3,9 C 92 % 1024,4 hPa 0,0 l/m 7,0 km/h (2 Bft) SW 236 0 min 0,000 mm 0,0 UV-I 54 W/m 2,7 C 3,4 C 11,3 km/h (2 Bft) 94,34 %
08.03.2017 07:44 4,0 C 92 % 1024,4 hPa 0,0 l/m 7,3 km/h (2 Bft) SW 215 0 min 0,000 mm 0,0 UV-I 64 W/m 2,8 C 3,2 C 11,3 km/h (2 Bft) 97,37 %
08.03.2017 07:46 4,0 C 91 % 1024,4 hPa 0,0 l/m 6,7 km/h (2 Bft) SW 232 0 min 0,000 mm 0,0 UV-I 71 W/m 2,7 C 3,7 C 11,3 km/h (2 Bft) 94,00 %
08.03.2017 07:48 4,1 C 92 % 1024,4 hPa 0,0 l/m 6,0 km/h (2 Bft) SW 233 0 min 0,000 mm 0,0 UV-I 80 W/m 2,9 C 4,1 C 8,0 km/h (2 Bft) 95,45 %
08.03.2017 07:50 4,1 C 91 % 1024,4 hPa 0,0 l/m 7,4 km/h (2 Bft) W-SW 237 0 min 0,000 mm 0,0 UV-I 83 W/m 2,8 C 3,2 C 11,3 km/h (2 Bft) 94,64 %
08.03.2017 07:52 4,1 C 91 % 1024,4 hPa 0,0 l/m 7,5 km/h (2 Bft) SW 236 0 min 0,000 mm 0,0 UV-I 83 W/m 2,8 C 3,1 C 12,9 km/h (3 Bft) 97,37 %
08.03.2017 07:54 4,1 C 91 % 1024,4 hPa 0,0 l/m 6,4 km/h (2 Bft) W-SW 250 0 min 0,000 mm 0,0 UV-I 98 W/m 2,8 C 4,1 C 14,5 km/h (3 Bft) 94,34 %
08.03.2017 07:56 4,2 C 91 % 1024,4 hPa 0,0 l/m 8,8 km/h (2 Bft) S-SW 207 0 min 0,000 mm 0,0 UV-I 103 W/m 2,9 C 2,1 C 14,5 km/h (3 Bft) 94,87 %
08.03.2017 07:58 4,2 C 91 % 1024,4 hPa 0,0 l/m 8,6 km/h (2 Bft) SW 223 0 min 0,000 mm 0,0 UV-I 112 W/m 2,9 C 2,3 C 14,5 km/h (3 Bft) 98,08 %
08.03.2017 08:00 4,2 C 90 % 1024,4 hPa 0,0 l/m 7,6 km/h (2 Bft) W-SW 255 0 min 0,025 mm 0,0 UV-I 116 W/m 2,7 C 3,1 C 12,9 km/h (3 Bft) 98,00 %
08.03.2017 08:02 4,3 C 90 % 1024,4 hPa 0,0 l/m 5,8 km/h (2 Bft) W-SW 256 0 min 0,000 mm 0,0 UV-I 109 W/m 2,8 C 4,3 C 8,0 km/h (2 Bft) 97,87 %
08.03.2017 08:04 4,3 C 90 % 1024,6 hPa 0,0 l/m 7,6 km/h (2 Bft) SW 222 0 min 0,000 mm 0,0 UV-I 117 W/m 2,8 C 3,2 C 12,9 km/h (3 Bft) 95,74 %
08.03.2017 08:06 4,4 C 90 % 1024,6 hPa 0,0 l/m 5,8 km/h (2 Bft) W-SW 250 0 min 0,000 mm 0,0 UV-I 112 W/m 2,9 C 4,4 C 11,3 km/h (2 Bft) 95,24 %
08.03.2017 08:08 4,4 C 90 % 1024,5 hPa 0,0 l/m 8,6 km/h (2 Bft) W-SW 244 0 min 0,000 mm 0,0 UV-I 102 W/m 2,9 C 2,5 C 12,9 km/h (3 Bft) 93,18 %
08.03.2017 08:10 4,4 C 90 % 1024,6 hPa 0,0 l/m 7,8 km/h (2 Bft) W-SW 237 0 min 0,000 mm 0,0 UV-I 102 W/m 2,9 C 3,1 C 12,9 km/h (3 Bft) 98,11 %
08.03.2017 08:12 4,5 C 89 % 1024,6 hPa 0,0 l/m 6,4 km/h (2 Bft) S-SW 213 0 min 0,000 mm 0,0 UV-I 99 W/m 2,8 C 4,5 C 11,3 km/h (2 Bft) 96,00 %
08.03.2017 08:14 4,5 C 89 % 1024,6 hPa 0,0 l/m 7,6 km/h (2 Bft) W-SW 242 0 min 0,000 mm 0,0 UV-I 110 W/m 2,8 C 3,4 C 14,5 km/h (3 Bft) 97,56 %
08.03.2017 08:16 4,6 C 89 % 1024,5 hPa 0,0 l/m 8,6 km/h (2 Bft) W-SW 248 0 min 0,000 mm 0,0 UV-I 114 W/m 2,9 C 2,7 C 14,5 km/h (3 Bft) 90,91 %
08.03.2017 08:18 4,6 C 89 % 1024,6 hPa 0,0 l/m 10,0 km/h (2 Bft) W-SW 253 0 min 0,000 mm 0,0 UV-I 114 W/m 2,9 C 1,6 C 12,9 km/h (3 Bft) 97,73 %
08.03.2017 08:20 4,6 C 88 % 1024,5 hPa 0,0 l/m 7,9 km/h (2 Bft) W-SW 240 0 min 0,000 mm 0,0 UV-I 122 W/m 2,8 C 3,3 C 12,9 km/h (3 Bft) 94,64 %
08.03.2017 08:22 4,6 C 88 % 1024,6 hPa 0,0 l/m 7,2 km/h (2 Bft) W-SW 256 0 min 0,000 mm 0,0 UV-I 117 W/m 2,8 C 3,9 C 11,3 km/h (2 Bft) 94,74 %
08.03.2017 08:24 4,7 C 88 % 1024,7 hPa 0,0 l/m 8,3 km/h (2 Bft) W 267 0 min 0,000 mm 0,0 UV-I 112 W/m 2,9 C 3,0 C 12,9 km/h (3 Bft) 98,11 %
08.03.2017 08:26 4,7 C 88 % 1024,6 hPa 0,0 l/m 9,8 km/h (2 Bft) SW 234 0 min 0,000 mm 0,0 UV-I 105 W/m 2,9 C 1,9 C 14,5 km/h (3 Bft) 98,00 %
08.03.2017 08:28 4,7 C 87 % 1024,6 hPa 0,0 l/m 10,7 km/h (2 Bft) W-SW 246 0 min 0,000 mm 0,0 UV-I 95 W/m 2,7 C 1,3 C 16,1 km/h (3 Bft) 95,12 %
08.03.2017 08:30 4,7 C 87 % 1024,7 hPa 0,0 l/m 11,3 km/h (2 Bft) W 269 0 min 0,000 mm 0,0 UV-I 88 W/m 2,7 C 0,9 C 16,1 km/h (3 Bft) 96,23 %
08.03.2017 08:32 4,7 C 87 % 1024,7 hPa 0,0 l/m 9,5 km/h (2 Bft) W 261 0 min 0,000 mm 0,0 UV-I 94 W/m 2,7 C 2,1 C 12,9 km/h (3 Bft) 100,00 %
08.03.2017 08:34 4,7 C 87 % 1024,8 hPa 0,0 l/m 6,6 km/h (2 Bft) W 265 0 min 0,000 mm 0,0 UV-I 104 W/m 2,7 C 4,5 C 9,7 km/h (2 Bft) 97,56 %
08.03.2017 08:36 4,7 C 87 % 1024,8 hPa 0,0 l/m 9,1 km/h (2 Bft) W-SW 238 0 min 0,000 mm 0,0 UV-I 111 W/m 2,7 C 2,4 C 16,1 km/h (3 Bft) 97,44 %
08.03.2017 08:38 4,7 C 87 % 1024,9 hPa 0,0 l/m 5,1 km/h (1 Bft) S-SW 213 0 min 0,000 mm 0,0 UV-I 124 W/m 2,7 C 4,7 C 8,0 km/h (2 Bft) 98,18 %
08.03.2017 08:40 4,8 C 87 % 1024,9 hPa 0,0 l/m 6,8 km/h (2 Bft) W-SW 258 0 min 0,000 mm 0,0 UV-I 152 W/m 2,8 C 4,5 C 11,3 km/h (2 Bft) 98,00 %
08.03.2017 08:42 4,8 C 87 % 1024,9 hPa 0,0 l/m 9,8 km/h (2 Bft) W-SW 254 0 min 0,000 mm 0,0 UV-I 134 W/m 2,8 C 2,0 C 16,1 km/h (3 Bft) 98,00 %
08.03.2017 08:44 4,8 C 87 % 1024,9 hPa 0,0 l/m 13,0 km/h (3 Bft) W-NW 290 0 min 0,000 mm 0,0 UV-I 125 W/m 2,8 C -0,1 C 17,7 km/h (3 Bft) 97,62 %
08.03.2017 08:46 4,9 C 87 % 1024,9 hPa 0,0 l/m 8,5 km/h (2 Bft) W 263 0 min 0,000 mm 0,0 UV-I 116 W/m 2,9 C 3,1 C 14,5 km/h (3 Bft) 90,24 %
08.03.2017 08:48 4,9 C 87 % 1025,0 hPa 0,0 l/m 7,7 km/h (2 Bft) W-SW 258 0 min 0,000 mm 0,0 UV-I 101 W/m 2,9 C 3,8 C 12,9 km/h (3 Bft) 94,34 %
08.03.2017 08:50 4,9 C 87 % 1025,0 hPa 0,0 l/m 5,0 km/h (1 Bft) W 278 0 min 0,000 mm 0,0 UV-I 81 W/m 2,9 C 4,9 C 9,7 km/h (2 Bft) 97,73 %
08.03.2017 08:52 4,9 C 86 % 1025,1 hPa 0,0 l/m 10,3 km/h (2 Bft) SW 224 0 min 0,000 mm 0,0 UV-I 77 W/m 2,8 C 1,8 C 14,5 km/h (3 Bft) 97,56 %
08.03.2017 08:54 4,9 C 86 % 1025,1 hPa 0,0 l/m 10,1 km/h (2 Bft) W 263 0 min 0,000 mm 0,0 UV-I 77 W/m 2,8 C 1,9 C 14,5 km/h (3 Bft) 94,00 %
08.03.2017 08:56 4,9 C 86 % 1025,1 hPa 0,0 l/m 8,3 km/h (2 Bft) W 259 0 min 0,000 mm 0,0 UV-I 79 W/m 2,8 C 3,3 C 11,3 km/h (2 Bft) 94,34 %
08.03.2017 08:58 4,8 C 86 % 1025,1 hPa 0,0 l/m 5,4 km/h (1 Bft) W-SW 244 0 min 0,000 mm 0,0 UV-I 83 W/m 2,7 C 4,8 C 8,0 km/h (2 Bft) 96,00 %
08.03.2017 09:00 4,9 C 87 % 1025,2 hPa 0,0 l/m 7,3 km/h (2 Bft) W-NW 293 0 min 0,051 mm 0,0 UV-I 74 W/m 2,9 C 4,1 C 9,7 km/h (2 Bft) 97,73 %
08.03.2017 09:02 4,9 C 87 % 1025,2 hPa 0,0 l/m 7,0 km/h (2 Bft) W 269 0 min 0,000 mm 0,0 UV-I 71 W/m 2,9 C 4,4 C 11,3 km/h (2 Bft) 95,12 %
08.03.2017 09:04 4,9 C 87 % 1025,1 hPa 0,0 l/m 5,5 km/h (1 Bft) W 263 0 min 0,000 mm 0,0 UV-I 75 W/m 2,9 C 4,9 C 9,7 km/h (2 Bft) 98,00 %
08.03.2017 09:06 4,9 C 86 % 1025,1 hPa 0,0 l/m 12,7 km/h (3 Bft) W-SW 257 0 min 0,000 mm 0,0 UV-I 75 W/m 2,8 C 0,2 C 17,7 km/h (3 Bft) 95,45 %
08.03.2017 09:08 4,8 C 86 % 1025,2 hPa 0,0 l/m 8,4 km/h (2 Bft) W-SW 238 0 min 0,000 mm 0,0 UV-I 75 W/m 2,7 C 3,1 C 11,3 km/h (2 Bft) 98,21 %
08.03.2017 09:10 4,8 C 87 % 1025,1 hPa 0,0 l/m 7,6 km/h (2 Bft) W 269 0 min 0,000 mm 0,0 UV-I 73 W/m 2,8 C 3,7 C 16,1 km/h (3 Bft) 95,74 %
08.03.2017 09:12 4,9 C 87 % 1025,1 hPa 0,0 l/m 7,6 km/h (2 Bft) W-SW 258 0 min 0,000 mm 0,0 UV-I 80 W/m 2,9 C 3,8 C 12,9 km/h (3 Bft) 92,68 %
08.03.2017 09:14 4,9 C 87 % 1025,1 hPa 0,0 l/m 5,3 km/h (1 Bft) W 280 0 min 0,000 mm 0,0 UV-I 88 W/m 2,9 C 4,9 C 6,4 km/h (2 Bft) 94,00 %
08.03.2017 09:16 4,9 C 87 % 1025,2 hPa 0,0 l/m 9,6 km/h (2 Bft) W-SW 248 0 min 0,000 mm 0,0 UV-I 96 W/m 2,9 C 2,2 C 12,9 km/h (3 Bft) 97,44 %
08.03.2017 09:18 4,9 C 86 % 1025,2 hPa 0,0 l/m 8,3 km/h (2 Bft) W 272 0 min 0,000 mm 0,0 UV-I 78 W/m 2,8 C 3,3 C 12,9 km/h (3 Bft) 98,08 %
08.03.2017 09:20 4,8 C 86 % 1025,2 hPa 0,0 l/m 4,9 km/h (1 Bft) W-SW 253 0 min 0,000 mm 0,0 UV-I 78 W/m 2,7 C 4,8 C 9,7 km/h (2 Bft) 92,31 %
08.03.2017 09:22 4,8 C 86 % 1025,2 hPa 0,0 l/m 8,2 km/h (2 Bft) SW 235 0 min 0,000 mm 0,0 UV-I 106 W/m 2,7 C 3,2 C 16,1 km/h (3 Bft) 96,23 %
08.03.2017 09:24 4,9 C 86 % 1025,2 hPa 0,0 l/m 6,2 km/h (2 Bft) W 265 0 min 0,000 mm 0,0 UV-I 127 W/m 2,8 C 4,9 C 11,3 km/h (2 Bft) 92,68 %
08.03.2017 09:26 4,9 C 86 % 1025,2 hPa 0,0 l/m 9,4 km/h (2 Bft) W 266 0 min 0,000 mm 0,0 UV-I 137 W/m 2,8 C 2,4 C 14,5 km/h (3 Bft) 98,21 %
08.03.2017 09:28 4,9 C 85 % 1025,1 hPa 0,0 l/m 7,0 km/h (2 Bft) W-SW 242 0 min 0,000 mm 0,0 UV-I 132 W/m 2,6 C 4,4 C 9,7 km/h (2 Bft) 95,45 %
08.03.2017 09:30 5,0 C 85 % 1025,1 hPa 0,0 l/m 8,6 km/h (2 Bft) W-SW 256 0 min 0,000 mm 0,0 UV-I 137 W/m 2,7 C 3,1 C 12,9 km/h (3 Bft) 100,00 %
08.03.2017 09:32 5,0 C 85 % 1025,1 hPa 0,0 l/m 5,6 km/h (1 Bft) W-SW 256 0 min 0,000 mm 0,0 UV-I 135 W/m 2,7 C 5,0 C 9,7 km/h (2 Bft) 97,56 %
08.03.2017 09:34 5,1 C 86 % 1025,1 hPa 0,0 l/m 7,0 km/h (2 Bft) W-NW 286 0 min 0,000 mm 0,0 UV-I 137 W/m 3,0 C 4,6 C 14,5 km/h (3 Bft) 98,00 %
08.03.2017 09:36 5,1 C 85 % 1025,1 hPa 0,0 l/m 3,6 km/h (1 Bft) W 281 0 min 0,000 mm 0,0 UV-I 139 W/m 2,8 C 5,1 C 6,4 km/h (2 Bft) 92,11 %
08.03.2017 09:38 5,1 C 85 % 1025,1 hPa 0,0 l/m 6,2 km/h (2 Bft) W-SW 244 0 min 0,000 mm 0,0 UV-I 126 W/m 2,8 C 5,1 C 11,3 km/h (2 Bft) 100,00 %
08.03.2017 09:40 5,1 C 85 % 1025,1 hPa 0,0 l/m 7,9 km/h (2 Bft) W 263 0 min 0,000 mm 0,0 UV-I 120 W/m 2,8 C 3,8 C 11,3 km/h (2 Bft) 97,37 %
08.03.2017 09:42 5,1 C 84 % 1025,1 hPa 0,0 l/m 5,9 km/h (2 Bft) W-SW 252 0 min 0,000 mm 0,0 UV-I 111 W/m 2,6 C 5,1 C 9,7 km/h (2 Bft) 96,00 %
08.03.2017 09:44 5,1 C 84 % 1025,1 hPa 0,0 l/m 5,1 km/h (1 Bft) W-SW 237 0 min 0,000 mm 0,0 UV-I 98 W/m 2,6 C 5,1 C 11,3 km/h (2 Bft) 97,37 %
08.03.2017 09:46 5,1 C 84 % 1025,1 hPa 0,0 l/m 7,8 km/h (2 Bft) W-SW 256 0 min 0,000 mm 0,0 UV-I 93 W/m 2,6 C 3,9 C 12,9 km/h (3 Bft) 98,00 %
08.03.2017 09:48 5,1 C 84 % 1025,1 hPa 0,0 l/m 4,9 km/h (1 Bft) W 260 0 min 0,000 mm 0,0 UV-I 91 W/m 2,6 C 5,1 C 9,7 km/h (2 Bft) 100,00 %
08.03.2017 09:50 5,1 C 85 % 1025,1 hPa 0,0 l/m 4,3 km/h (1 Bft) W 259 0 min 0,000 mm 0,0 UV-I 91 W/m 2,8 C 5,1 C 6,4 km/h (2 Bft) 96,23 %
08.03.2017 09:52 5,1 C 84 % 1025,2 hPa 0,0 l/m 4,1 km/h (1 Bft) SW 221 0 min 0,000 mm 0,0 UV-I 96 W/m 2,6 C 5,1 C 6,4 km/h (2 Bft) 94,00 %
08.03.2017 09:54 5,1 C 84 % 1025,1 hPa 0,0 l/m 6,5 km/h (2 Bft) W-SW 239 0 min 0,000 mm 0,0 UV-I 110 W/m 2,6 C 5,0 C 9,7 km/h (2 Bft) 100,00 %
08.03.2017 09:56 5,1 C 84 % 1025,1 hPa 0,0 l/m 6,4 km/h (2 Bft) W 272 0 min 0,000 mm 0,0 UV-I 123 W/m 2,6 C 5,1 C 9,7 km/h (2 Bft) 97,37 %
08.03.2017 09:58 5,2 C 85 % 1025,2 hPa 0,0 l/m 3,8 km/h (1 Bft) W 273 0 min 0,000 mm 0,0 UV-I 131 W/m 2,9 C 5,2 C 6,4 km/h (2 Bft) 98,11 %
08.03.2017 10:00 5,2 C 85 % 1025,2 hPa 0,0 l/m 4,1 km/h (1 Bft) W-SW 246 0 min 0,051 mm 0,2 UV-I 140 W/m 2,9 C 5,2 C 6,4 km/h (2 Bft) 100,00 %
08.03.2017 10:02 5,3 C 85 % 1025,2 hPa 0,0 l/m 5,3 km/h (1 Bft) SW 214 0 min 0,000 mm 0,5 UV-I 150 W/m 3,0 C 5,3 C 8,0 km/h (2 Bft) 100,00 %
08.03.2017 10:04 5,3 C 85 % 1025,2 hPa 0,0 l/m 5,1 km/h (1 Bft) W-SW 255 0 min 0,000 mm 0,5 UV-I 152 W/m 3,0 C 5,3 C 9,7 km/h (2 Bft) 100,00 %
08.03.2017 10:06 5,3 C 84 % 1025,3 hPa 0,0 l/m 6,7 km/h (2 Bft) W-SW 249 0 min 0,000 mm 0,5 UV-I 157 W/m 2,8 C 5,1 C 9,7 km/h (2 Bft) 100,00 %
08.03.2017 10:08 5,3 C 84 % 1025,3 hPa 0,0 l/m 5,8 km/h (2 Bft) SW 222 0 min 0,000 mm 0,5 UV-I 160 W/m 2,8 C 5,3 C 11,3 km/h (2 Bft) 98,00 %
08.03.2017 10:10 5,2 C 84 % 1025,3 hPa 0,0 l/m 5,5 km/h (1 Bft) W-SW 252 0 min 0,000 mm 0,5 UV-I 172 W/m 2,7 C 5,2 C 9,7 km/h (2 Bft) 100,00 %
08.03.2017 10:12 5,3 C 84 % 1025,3 hPa 0,0 l/m 2,9 km/h (1 Bft) W 268 0 min 0,000 mm 0,6 UV-I 179 W/m 2,8 C 5,3 C 6,4 km/h (2 Bft) 100,00 %
08.03.2017 10:14 5,3 C 84 % 1025,3 hPa 0,0 l/m 1,8 km/h (1 Bft) W 268 0 min 0,000 mm 0,5 UV-I 177 W/m 2,8 C 5,3 C 3,2 km/h (1 Bft) 100,00 %
08.03.2017 10:16 5,3 C 84 % 1025,3 hPa 0,0 l/m 2,0 km/h (1 Bft) SW 215 0 min 0,000 mm 0,6 UV-I 185 W/m 2,8 C 5,3 C 4,8 km/h (1 Bft) 100,00 %
08.03.2017 10:18 5,3 C 84 % 1025,2 hPa 0,0 l/m 4,9 km/h (1 Bft) S-SW 195 0 min 0,000 mm 0,6 UV-I 202 W/m 2,8 C 5,3 C 6,4 km/h (2 Bft) 94,74 %
08.03.2017 10:20 5,3 C 84 % 1025,2 hPa 0,0 l/m 3,4 km/h (1 Bft) SW 232 0 min 0,000 mm 0,7 UV-I 228 W/m 2,8 C 5,3 C 6,4 km/h (2 Bft) 96,77 %
08.03.2017 10:22 5,4 C 84 % 1025,2 hPa 0,0 l/m 3,2 km/h (1 Bft) W-SW 237 0 min 0,000 mm 0,8 UV-I 254 W/m 2,9 C 5,4 C 4,8 km/h (1 Bft) 97,87 %
08.03.2017 10:24 5,5 C 84 % 1025,2 hPa 0,0 l/m 5,3 km/h (1 Bft) SW 224 0 min 0,000 mm 0,9 UV-I 285 W/m 3,0 C 5,5 C 9,7 km/h (2 Bft) 100,00 %
08.03.2017 10:26 5,6 C 84 % 1025,2 hPa 0,0 l/m 5,5 km/h (1 Bft) W-SW 248 2 min 0,000 mm 0,9 UV-I 296 W/m 3,1 C 5,6 C 9,7 km/h (2 Bft) 95,12 %
08.03.2017 10:28 5,7 C 84 % 1025,3 hPa 0,0 l/m 4,0 km/h (1 Bft) W-SW 248 2 min 0,000 mm 0,9 UV-I 321 W/m 3,2 C 5,7 C 6,4 km/h (2 Bft) 100,00 %
08.03.2017 10:30 5,8 C 84 % 1025,2 hPa 0,0 l/m 2,1 km/h (1 Bft) W-SW 242 2 min 0,000 mm 1,0 UV-I 350 W/m 3,3 C 5,8 C 6,4 km/h (2 Bft) 100,00 %
08.03.2017 10:32 6,0 C 83 % 1025,2 hPa 0,0 l/m 5,2 km/h (1 Bft) SW 224 2 min 0,000 mm 1,0 UV-I 335 W/m 3,3 C 6,0 C 11,3 km/h (2 Bft) 97,56 %
08.03.2017 10:34 6,1 C 83 % 1025,1 hPa 0,0 l/m 5,5 km/h (1 Bft) SW 214 2 min 0,000 mm 0,9 UV-I 308 W/m 3,4 C 6,1 C 9,7 km/h (2 Bft) 94,64 %
08.03.2017 10:36 6,1 C 82 % 1025,2 hPa 0,0 l/m 6,0 km/h (2 Bft) S-SW 211 0 min 0,000 mm 0,9 UV-I 297 W/m 3,3 C 6,1 C 9,7 km/h (2 Bft) 100,00 %
08.03.2017 10:38 5,9 C 82 % 1025,1 hPa 0,0 l/m 3,7 km/h (1 Bft) S-SW 202 0 min 0,000 mm 0,9 UV-I 298 W/m 3,1 C 5,9 C 8,0 km/h (2 Bft) 100,00 %
08.03.2017 10:40 5,9 C 82 % 1025,1 hPa 0,0 l/m 6,3 km/h (2 Bft) W-SW 249 0 min 0,000 mm 1,0 UV-I 300 W/m 3,1 C 5,9 C 11,3 km/h (2 Bft) 100,00 %
08.03.2017 10:42 6,0 C 82 % 1025,0 hPa 0,0 l/m 6,7 km/h (2 Bft) S-SW 204 2 min 0,000 mm 1,1 UV-I 354 W/m 3,2 C 5,8 C 9,7 km/h (2 Bft) 96,61 %
08.03.2017 10:44 6,1 C 81 % 1025,0 hPa 0,0 l/m 4,1 km/h (1 Bft) S 173 2 min 0,000 mm 1,3 UV-I 489 W/m 3,1 C 6,1 C 8,0 km/h (2 Bft) 100,00 %
08.03.2017 10:46 6,3 C 83 % 1025,0 hPa 0,0 l/m 5,8 km/h (2 Bft) W 263 2 min 0,000 mm 1,2 UV-I 450 W/m 3,6 C 6,3 C 11,3 km/h (2 Bft) 97,73 %
08.03.2017 10:48 6,4 C 81 % 1025,0 hPa 0,0 l/m 9,3 km/h (2 Bft) W-SW 246 2 min 0,000 mm 1,1 UV-I 371 W/m 3,4 C 4,1 C 12,9 km/h (3 Bft) 90,00 %
08.03.2017 10:50 6,3 C 79 % 1025,0 hPa 0,0 l/m 7,1 km/h (2 Bft) W-SW 248 2 min 0,000 mm 1,0 UV-I 364 W/m 2,9 C 5,7 C 11,3 km/h (2 Bft) 97,14 %
08.03.2017 10:52 6,2 C 80 % 1025,0 hPa 0,0 l/m 4,1 km/h (1 Bft) W-NW 290 2 min 0,000 mm 1,3 UV-I 534 W/m 3,0 C 6,2 C 6,4 km/h (2 Bft) 92,45 %
08.03.2017 10:54 6,4 C 82 % 1024,9 hPa 0,0 l/m 2,0 km/h (1 Bft) N-NW 348 2 min 0,000 mm 1,2 UV-I 508 W/m 3,6 C 6,4 C 4,8 km/h (1 Bft) 95,12 %
08.03.2017 10:56 6,6 C 80 % 1024,9 hPa 0,0 l/m 4,7 km/h (1 Bft) W 274 2 min 0,000 mm 1,1 UV-I 354 W/m 3,4 C 6,6 C 8,0 km/h (2 Bft) 92,86 %
08.03.2017 10:58 6,4 C 79 % 1024,8 hPa 0,0 l/m 2,4 km/h (1 Bft) W 281 2 min 0,000 mm 1,1 UV-I 325 W/m 3,0 C 6,4 C 6,4 km/h (2 Bft) 95,74 %
08.03.2017 11:00 6,3 C 79 % 1024,9 hPa 0,0 l/m 4,9 km/h (1 Bft) W 267 0 min 0,000 mm 1,1 UV-I 308 W/m 2,9 C 6,3 C 9,7 km/h (2 Bft) 97,37 %
08.03.2017 11:02 6,2 C 79 % 1024,9 hPa 0,0 l/m 5,1 km/h (1 Bft) W-NW 288 0 min 0,127 mm 1,1 UV-I 295 W/m 2,8 C 6,2 C 6,4 km/h (2 Bft) 98,11 %
08.03.2017 11:04 6,2 C 80 % 1024,9 hPa 0,0 l/m 4,7 km/h (1 Bft) W 267 0 min 0,000 mm 1,1 UV-I 297 W/m 3,0 C 6,2 C 11,3 km/h (2 Bft) 92,00 %
08.03.2017 11:06 6,2 C 80 % 1024,9 hPa 0,0 l/m 5,4 km/h (1 Bft) W 279 0 min 0,000 mm 1,2 UV-I 314 W/m 3,0 C 6,2 C 9,7 km/h (2 Bft) 95,74 %
08.03.2017 11:08 6,2 C 80 % 1024,8 hPa 0,0 l/m 6,5 km/h (2 Bft) W-SW 237 2 min 0,000 mm 1,3 UV-I 356 W/m 3,0 C 6,1 C 11,3 km/h (2 Bft) 95,12 %
08.03.2017 11:10 6,2 C 80 % 1024,8 hPa 0,0 l/m 3,5 km/h (1 Bft) W 259 2 min 0,000 mm 1,2 UV-I 347 W/m 3,0 C 6,2 C 6,4 km/h (2 Bft) 98,00 %
08.03.2017 11:12 6,3 C 82 % 1024,8 hPa 0,0 l/m 1,3 km/h (1 Bft) W-SW 258 2 min 0,000 mm 1,3 UV-I 377 W/m 3,5 C 6,3 C 3,2 km/h (1 Bft) 97,87 %
08.03.2017 11:14 6,5 C 80 % 1024,8 hPa 0,0 l/m 4,3 km/h (1 Bft) SW 220 0 min 0,000 mm 1,1 UV-I 304 W/m 3,3 C 6,5 C 9,7 km/h (2 Bft) 100,00 %
08.03.2017 11:16 6,5 C 80 % 1024,7 hPa 0,0 l/m 6,5 km/h (2 Bft) W-SW 258 0 min 0,000 mm 1,1 UV-I 297 W/m 3,3 C 6,4 C 9,7 km/h (2 Bft) 92,68 %
08.03.2017 11:18 6,4 C 80 % 1024,7 hPa 0,0 l/m 6,8 km/h (2 Bft) W-SW 253 0 min 0,000 mm 1,1 UV-I 296 W/m 3,2 C 6,1 C 11,3 km/h (2 Bft) 97,62 %
08.03.2017 11:20 6,4 C 79 % 1024,6 hPa 0,0 l/m 5,9 km/h (2 Bft) W 262 0 min 0,000 mm 1,1 UV-I 289 W/m 3,0 C 6,4 C 11,3 km/h (2 Bft) 96,00 %
08.03.2017 11:22 6,4 C 79 % 1024,6 hPa 0,0 l/m 5,2 km/h (1 Bft) W-SW 257 0 min 0,000 mm 1,1 UV-I 278 W/m 3,0 C 6,4 C 9,7 km/h (2 Bft) 96,00 %
08.03.2017 11:24 6,4 C 79 % 1024,5 hPa 0,0 l/m 4,1 km/h (1 Bft) W-SW 257 0 min 0,000 mm 1,1 UV-I 271 W/m 3,0 C 6,4 C 6,4 km/h (2 Bft) 94,00 %
08.03.2017 11:26 6,5 C 80 % 1024,5 hPa 0,0 l/m 3,4 km/h (1 Bft) SW 221 0 min 0,000 mm 1,1 UV-I 274 W/m 3,3 C 6,5 C 6,4 km/h (2 Bft) 100,00 %
08.03.2017 11:28 6,6 C 80 % 1024,5 hPa 0,0 l/m 4,9 km/h (1 Bft) W-SW 258 0 min 0,000 mm 1,2 UV-I 292 W/m 3,4 C 6,6 C 9,7 km/h (2 Bft) 100,00 %
08.03.2017 11:30 6,6 C 79 % 1024,6 hPa 0,0 l/m 4,1 km/h (1 Bft) W-SW 243 0 min 0,000 mm 1,2 UV-I 299 W/m 3,2 C 6,6 C 6,4 km/h (2 Bft) 100,00 %
08.03.2017 11:32 6,6 C 80 % 1024,6 hPa 0,0 l/m 1,9 km/h (1 Bft) W 262 0 min 0,000 mm 1,2 UV-I 304 W/m 3,4 C 6,6 C 4,8 km/h (1 Bft) 97,37 %
08.03.2017 11:34 6,7 C 81 % 1024,5 hPa 0,0 l/m 2,1 km/h (1 Bft) W 268 0 min 0,000 mm 1,2 UV-I 282 W/m 3,7 C 6,7 C 4,8 km/h (1 Bft) 100,00 %
08.03.2017 11:36 6,6 C 79 % 1024,5 hPa 0,0 l/m 0,1 km/h (0 Bft) W 268 0 min 0,000 mm 1,1 UV-I 270 W/m 3,2 C 6,6 C 1,6 km/h (1 Bft) 97,87 %
08.03.2017 11:38 6,6 C 79 % 1024,6 hPa 0,0 l/m 3,7 km/h (1 Bft) W-SW 252 0 min 0,000 mm 1,1 UV-I 262 W/m 3,2 C 6,6 C 6,4 km/h (2 Bft) 100,00 %
08.03.2017 11:40 6,7 C 80 % 1024,6 hPa 0,0 l/m 4,2 km/h (1 Bft) W 271 0 min 0,000 mm 1,1 UV-I 259 W/m 3,5 C 6,7 C 6,4 km/h (2 Bft) 93,62 %
08.03.2017 11:42 6,8 C 80 % 1024,6 hPa 0,0 l/m 3,8 km/h (1 Bft) W-SW 241 0 min 0,000 mm 1,1 UV-I 261 W/m 3,6 C 6,8 C 8,0 km/h (2 Bft) 100,00 %
08.03.2017 11:44 6,8 C 79 % 1024,6 hPa 0,0 l/m 6,8 km/h (2 Bft) SW 223 0 min 0,000 mm 1,1 UV-I 273 W/m 3,4 C 6,5 C 11,3 km/h (2 Bft) 100,00 %
08.03.2017 11:46 6,8 C 78 % 1024,6 hPa 0,0 l/m 6,8 km/h (2 Bft) W 265 0 min 0,000 mm 1,2 UV-I 290 W/m 3,2 C 6,5 C 11,3 km/h (2 Bft) 100,00 %
08.03.2017 11:48 6,8 C 79 % 1024,5 hPa 0,0 l/m 4,0 km/h (1 Bft) W 276 0 min 0,000 mm 1,3 UV-I 309 W/m 3,4 C 6,8 C 6,4 km/h (2 Bft) 97,56 %
08.03.2017 11:50 6,8 C 78 % 1024,4 hPa 0,0 l/m 7,0 km/h (2 Bft) W 273 2 min 0,000 mm 1,4 UV-I 340 W/m 3,2 C 6,3 C 11,3 km/h (2 Bft) 100,00 %
08.03.2017 11:52 6,8 C 77 % 1024,4 hPa 0,0 l/m 5,8 km/h (2 Bft) W 269 2 min 0,000 mm 1,5 UV-I 380 W/m 3,1 C 6,8 C 9,7 km/h (2 Bft) 98,11 %
08.03.2017 11:54 6,8 C 78 % 1024,5 hPa 0,0 l/m 5,4 km/h (1 Bft) W 277 2 min 0,000 mm 1,5 UV-I 382 W/m 3,2 C 6,8 C 9,7 km/h (2 Bft) 98,00 %
08.03.2017 11:56 6,7 C 77 % 1024,6 hPa 0,0 l/m 6,8 km/h (2 Bft) SW 217 2 min 0,000 mm 1,4 UV-I 350 W/m 3,0 C 6,4 C 11,3 km/h (2 Bft) 96,15 %
08.03.2017 11:58 6,7 C 77 % 1024,6 hPa 0,0 l/m 5,0 km/h (1 Bft) W 275 2 min 0,000 mm 1,5 UV-I 374 W/m 3,0 C 6,7 C 11,3 km/h (2 Bft) 98,00 %
08.03.2017 12:00 6,9 C 78 % 1024,6 hPa 0,0 l/m 4,8 km/h (1 Bft) SW 223 2 min 0,152 mm 1,8 UV-I 422 W/m 3,3 C 6,9 C 9,7 km/h (2 Bft) 97,44 %
08.03.2017 12:02 7,0 C 77 % 1024,4 hPa 0,0 l/m 4,9 km/h (1 Bft) W 261 2 min 0,000 mm 1,9 UV-I 483 W/m 3,2 C 7,0 C 9,7 km/h (2 Bft) 100,00 %
08.03.2017 12:04 7,1 C 76 % 1024,4 hPa 0,0 l/m 1,0 km/h (0 Bft) W 261 2 min 0,000 mm 1,8 UV-I 640 W/m 3,2 C 7,1 C 3,2 km/h (1 Bft) 100,00 %
08.03.2017 12:06 7,6 C 78 % 1024,5 hPa 0,0 l/m 0,7 km/h (0 Bft) W-NW 288 2 min 0,000 mm 1,9 UV-I 722 W/m 4,0 C 7,6 C 1,6 km/h (1 Bft) 100,00 %
08.03.2017 12:08 7,6 C 75 % 1024,4 hPa 0,0 l/m 1,7 km/h (1 Bft) NW 317 2 min 0,000 mm 1,6 UV-I 459 W/m 3,5 C 7,6 C 6,4 km/h (2 Bft) 100,00 %
08.03.2017 12:10 7,6 C 75 % 1024,4 hPa 0,0 l/m 2,5 km/h (1 Bft) SW 229 2 min 0,000 mm 1,8 UV-I 612 W/m 3,5 C 7,6 C 6,4 km/h (2 Bft) 95,12 %
08.03.2017 12:12 7,4 C 73 % 1024,4 hPa 0,0 l/m 1,8 km/h (1 Bft) S 182 2 min 0,000 mm 2,0 UV-I 676 W/m 2,9 C 7,4 C 4,8 km/h (1 Bft) 98,31 %
08.03.2017 12:14 7,6 C 74 % 1024,4 hPa 0,0 l/m 7,9 km/h (2 Bft) W-SW 256 2 min 0,000 mm 2,0 UV-I 726 W/m 3,3 C 6,4 C 12,9 km/h (3 Bft) 97,83 %
08.03.2017 12:16 7,7 C 72 % 1024,4 hPa 0,0 l/m 4,7 km/h (1 Bft) SW 227 2 min 0,000 mm 1,9 UV-I 689 W/m 3,0 C 7,7 C 11,3 km/h (2 Bft) 97,73 %
08.03.2017 12:18 7,8 C 73 % 1024,3 hPa 0,0 l/m 7,0 km/h (2 Bft) S-SW 196 2 min 0,000 mm 1,6 UV-I 533 W/m 3,3 C 7,3 C 9,7 km/h (2 Bft) 97,73 %
08.03.2017 12:20 7,6 C 72 % 1024,3 hPa 0,0 l/m 4,7 km/h (1 Bft) S-SW 204 0 min 0,000 mm 1,3 UV-I 138 W/m 2,9 C 7,6 C 8,0 km/h (2 Bft) 98,11 %
08.03.2017 12:22 7,3 C 73 % 1024,2 hPa 0,0 l/m 7,0 km/h (2 Bft) SW 227 0 min 0,000 mm 1,3 UV-I 145 W/m 2,8 C 6,8 C 9,7 km/h (2 Bft) 100,00 %
08.03.2017 12:24 7,4 C 72 % 1024,3 hPa 0,0 l/m 5,3 km/h (1 Bft) W 261 2 min 0,000 mm 1,9 UV-I 402 W/m 2,7 C 7,4 C 8,0 km/h (2 Bft) 100,00 %
08.03.2017 12:26 7,6 C 75 % 1024,2 hPa 0,0 l/m 5,8 km/h (2 Bft) W-NW 288 2 min 0,000 mm 1,9 UV-I 678 W/m 3,5 C 7,6 C 9,7 km/h (2 Bft) 97,37 %
08.03.2017 12:28 7,8 C 73 % 1024,2 hPa 0,0 l/m 4,1 km/h (1 Bft) S-SW 207 2 min 0,000 mm 1,9 UV-I 684 W/m 3,3 C 7,8 C 8,0 km/h (2 Bft) 98,00 %
08.03.2017 12:30 7,9 C 73 % 1024,1 hPa 0,0 l/m 6,1 km/h (2 Bft) S-SW 206 2 min 0,000 mm 1,9 UV-I 696 W/m 3,4 C 7,9 C 8,0 km/h (2 Bft) 98,11 %
08.03.2017 12:32 7,8 C 72 % 1024,2 hPa 0,0 l/m 2,5 km/h (1 Bft) S-SW 202 2 min 0,000 mm 2,0 UV-I 705 W/m 3,1 C 7,8 C 6,4 km/h (2 Bft) 100,00 %
08.03.2017 12:34 7,6 C 71 % 1024,2 hPa 0,0 l/m 2,9 km/h (1 Bft) W-SW 255 2 min 0,000 mm 2,0 UV-I 710 W/m 2,7 C 7,6 C 8,0 km/h (2 Bft) 97,22 %
08.03.2017 12:36 7,7 C 71 % 1024,1 hPa 0,0 l/m 1,5 km/h (1 Bft) W-SW 258 2 min 0,000 mm 2,0 UV-I 723 W/m 2,8 C 7,7 C 3,2 km/h (1 Bft) 96,77 %
08.03.2017 12:38 7,7 C 74 % 1024,1 hPa 0,0 l/m 2,4 km/h (1 Bft) SW 216 2 min 0,000 mm 2,0 UV-I 721 W/m 3,4 C 7,7 C 8,0 km/h (2 Bft) 95,45 %
08.03.2017 12:40 7,8 C 73 % 1024,0 hPa 0,0 l/m 3,3 km/h (1 Bft) S 180 2 min 0,000 mm 1,9 UV-I 704 W/m 3,3 C 7,8 C 6,4 km/h (2 Bft) 92,73 %
08.03.2017 12:42 7,8 C 71 % 1024,0 hPa 0,0 l/m 3,1 km/h (1 Bft) S-SO 162 2 min 0,000 mm 1,7 UV-I 587 W/m 2,9 C 7,8 C 6,4 km/h (2 Bft) 91,11 %
08.03.2017 12:44 7,8 C 72 % 1024,0 hPa 0,0 l/m 1,7 km/h (1 Bft) S-SO 162 2 min 0,000 mm 1,7 UV-I 587 W/m 3,1 C 7,8 C 3,2 km/h (1 Bft) 95,12 %
08.03.2017 12:46 8,1 C 71 % 1024,0 hPa 0,0 l/m 3,7 km/h (1 Bft) S-SW 206 2 min 0,000 mm 1,9 UV-I 698 W/m 3,2 C 8,1 C 9,7 km/h (2 Bft) 98,11 %
08.03.2017 12:48 8,1 C 67 % 1024,1 hPa 0,0 l/m 6,4 km/h (2 Bft) SW 227 2 min 0,000 mm 1,9 UV-I 712 W/m 2,3 C 8,1 C 11,3 km/h (2 Bft) 91,49 %
08.03.2017 12:50 8,3 C 66 % 1024,1 hPa 0,0 l/m 6,9 km/h (2 Bft) SW 235 2 min 0,000 mm 1,9 UV-I 735 W/m 2,3 C 7,9 C 11,3 km/h (2 Bft) 95,12 %
08.03.2017 12:52 8,6 C 65 % 1024,1 hPa 0,0 l/m 6,4 km/h (2 Bft) W 259 2 min 0,000 mm 1,9 UV-I 746 W/m 2,4 C 8,6 C 12,9 km/h (3 Bft) 96,00 %
08.03.2017 12:54 8,9 C 64 % 1024,0 hPa 0,0 l/m 6,9 km/h (2 Bft) W-NW 288 2 min 0,000 mm 1,9 UV-I 742 W/m 2,5 C 8,5 C 11,3 km/h (2 Bft) 98,00 %
08.03.2017 12:56 8,8 C 62 % 1024,0 hPa 0,0 l/m 5,9 km/h (2 Bft) SW 225 2 min 0,000 mm 1,9 UV-I 723 W/m 1,9 C 8,8 C 12,9 km/h (3 Bft) 92,68 %
08.03.2017 12:58 8,6 C 65 % 1024,0 hPa 0,0 l/m 5,6 km/h (1 Bft) S-SW 194 2 min 0,000 mm 1,4 UV-I 651 W/m 2,4 C 8,6 C 11,3 km/h (2 Bft) 100,00 %
08.03.2017 13:00 8,4 C 66 % 1024,0 hPa 0,0 l/m 7,0 km/h (2 Bft) SW 227 0 min 0,280 mm 1,3 UV-I 266 W/m 2,4 C 7,9 C 14,5 km/h (3 Bft) 97,56 %
08.03.2017 13:02 8,3 C 63 % 1024,0 hPa 0,0 l/m 9,1 km/h (2 Bft) SW 229 0 min 0,000 mm 1,4 UV-I 282 W/m 1,7 C 6,3 C 12,9 km/h (3 Bft) 98,39 %
08.03.2017 13:04 8,4 C 63 % 1024,0 hPa 0,0 l/m 7,7 km/h (2 Bft) W 263 2 min 0,000 mm 1,7 UV-I 627 W/m 1,8 C 7,4 C 12,9 km/h (3 Bft) 97,56 %
08.03.2017 13:06 8,3 C 62 % 1024,0 hPa 0,0 l/m 5,0 km/h (1 Bft) W-NW 289 2 min 0,000 mm 1,3 UV-I 574 W/m 1,5 C 8,3 C 9,7 km/h (2 Bft) 98,21 %
08.03.2017 13:08 8,3 C 65 % 1023,9 hPa 0,0 l/m 2,0 km/h (1 Bft) W-SW 254 0 min 0,000 mm 1,3 UV-I 247 W/m 2,1 C 8,3 C 4,8 km/h (1 Bft) 100,00 %
08.03.2017 13:10 8,3 C 65 % 1023,9 hPa 0,0 l/m 4,8 km/h (1 Bft) W-SW 247 0 min 0,000 mm 1,4 UV-I 248 W/m 2,1 C 8,3 C 8,0 km/h (2 Bft) 95,52 %
08.03.2017 13:12 8,3 C 65 % 1023,9 hPa 0,0 l/m 3,1 km/h (1 Bft) W 269 2 min 0,000 mm 1,4 UV-I 557 W/m 2,1 C 8,3 C 6,4 km/h (2 Bft) 98,00 %
08.03.2017 13:14 8,4 C 65 % 1023,9 hPa 0,0 l/m 3,6 km/h (1 Bft) W 262 2 min 0,000 mm 1,3 UV-I 427 W/m 2,2 C 8,4 C 6,4 km/h (2 Bft) 100,00 %
08.03.2017 13:16 8,3 C 62 % 1023,9 hPa 0,0 l/m 7,4 km/h (2 Bft) W 262 0 min 0,000 mm 1,3 UV-I 216 W/m 1,5 C 7,5 C 9,7 km/h (2 Bft) 100,00 %
08.03.2017 13:18 8,3 C 62 % 1023,9 hPa 0,0 l/m 6,0 km/h (2 Bft) W-SW 244 2 min 0,000 mm 1,7 UV-I 393 W/m 1,5 C 8,3 C 11,3 km/h (2 Bft) 96,23 %
08.03.2017 13:20 8,4 C 61 % 1023,8 hPa 0,0 l/m 3,7 km/h (1 Bft) W-SW 244 2 min 0,000 mm 1,7 UV-I 660 W/m 1,3 C 8,4 C 6,4 km/h (2 Bft) 94,00 %
08.03.2017 13:22 8,3 C 60 % 1023,7 hPa 0,0 l/m 1,2 km/h (1 Bft) W-SW 244 2 min 0,000 mm 1,4 UV-I 411 W/m 1,0 C 8,3 C 3,2 km/h (1 Bft) 97,37 %
08.03.2017 13:24 8,4 C 64 % 1023,7 hPa 0,0 l/m 3,1 km/h (1 Bft) S-SW 197 2 min 0,000 mm 1,6 UV-I 436 W/m 2,0 C 8,4 C 9,7 km/h (2 Bft) 94,34 %
08.03.2017 13:26 8,7 C 67 % 1023,7 hPa 0,0 l/m 3,4 km/h (1 Bft) S 191 2 min 0,000 mm 1,6 UV-I 635 W/m 2,9 C 8,7 C 6,4 km/h (2 Bft) 93,18 %
08.03.2017 13:28 8,8 C 64 % 1023,7 hPa 0,0 l/m 8,0 km/h (2 Bft) SW 224 2 min 0,000 mm 1,6 UV-I 594 W/m 2,4 C 7,6 C 12,9 km/h (3 Bft) 95,12 %
08.03.2017 13:30 8,8 C 61 % 1023,6 hPa 0,0 l/m 7,8 km/h (2 Bft) S-SW 206 0 min 0,000 mm 1,2 UV-I 244 W/m 1,7 C 7,7 C 14,5 km/h (3 Bft) 91,53 %
08.03.2017 13:32 8,5 C 62 % 1023,7 hPa 0,0 l/m 4,3 km/h (1 Bft) W-SW 254 0 min 0,000 mm 1,1 UV-I 124 W/m 1,6 C 8,5 C 9,7 km/h (2 Bft) 100,00 %
08.03.2017 13:34 8,3 C 63 % 1023,6 hPa 0,0 l/m 6,6 km/h (2 Bft) S-SW 207 0 min 0,000 mm 1,1 UV-I 117 W/m 1,7 C 8,2 C 9,7 km/h (2 Bft) 95,74 %
08.03.2017 13:36 8,2 C 63 % 1023,6 hPa 0,0 l/m 7,5 km/h (2 Bft) S-SW 202 0 min 0,000 mm 1,1 UV-I 130 W/m 1,6 C 7,3 C 9,7 km/h (2 Bft) 96,23 %
08.03.2017 13:38 8,1 C 64 % 1023,7 hPa 0,0 l/m 6,1 km/h (2 Bft) SW 224 0 min 0,000 mm 1,1 UV-I 114 W/m 1,7 C 8,1 C 8,0 km/h (2 Bft) 97,73 %
08.03.2017 13:40 7,9 C 65 % 1023,6 hPa 0,0 l/m 5,6 km/h (1 Bft) S-SW 199 0 min 0,000 mm 1,1 UV-I 120 W/m 1,7 C 7,9 C 8,0 km/h (2 Bft) 94,00 %
08.03.2017 13:42 7,9 C 65 % 1023,7 hPa 0,0 l/m 5,9 km/h (2 Bft) S 173 0 min 0,000 mm 1,1 UV-I 131 W/m 1,7 C 7,9 C 11,3 km/h (2 Bft) 100,00 %
08.03.2017 13:44 7,8 C 66 % 1023,7 hPa 0,0 l/m 2,6 km/h (1 Bft) W-SW 238 0 min 0,000 mm 1,0 UV-I 144 W/m 1,9 C 7,8 C 6,4 km/h (2 Bft) 97,73 %
08.03.2017 13:46 7,8 C 66 % 1023,7 hPa 0,0 l/m 3,7 km/h (1 Bft) S 180 0 min 0,000 mm 1,1 UV-I 171 W/m 1,9 C 7,8 C 8,0 km/h (2 Bft) 92,00 %
08.03.2017 13:48 7,8 C 67 % 1023,8 hPa 0,0 l/m 4,8 km/h (1 Bft) S-SW 201 0 min 0,000 mm 1,1 UV-I 201 W/m 2,1 C 7,8 C 6,4 km/h (2 Bft) 94,00 %
08.03.2017 13:50 8,0 C 67 % 1023,8 hPa 0,0 l/m 3,1 km/h (1 Bft) S-SW 201 2 min 0,000 mm 1,4 UV-I 476 W/m 2,3 C 8,0 C 8,0 km/h (2 Bft) 89,74 %
08.03.2017 13:52 8,1 C 67 % 1023,7 hPa 0,0 l/m 3,3 km/h (1 Bft) S-SW 205 2 min 0,000 mm 1,4 UV-I 483 W/m 2,3 C 8,1 C 8,0 km/h (2 Bft) 94,83 %
08.03.2017 13:54 8,3 C 67 % 1023,8 hPa 0,0 l/m 6,1 km/h (2 Bft) SW 214 2 min 0,000 mm 1,4 UV-I 584 W/m 2,5 C 8,3 C 9,7 km/h (2 Bft) 97,44 %
08.03.2017 13:56 8,6 C 64 % 1023,7 hPa 0,0 l/m 5,5 km/h (1 Bft) S 171 2 min 0,000 mm 1,4 UV-I 600 W/m 2,2 C 8,6 C 11,3 km/h (2 Bft) 92,73 %
08.03.2017 13:58 8,5 C 62 % 1023,7 hPa 0,0 l/m 2,0 km/h (1 Bft) S-SO 148 2 min 0,000 mm 1,4 UV-I 583 W/m 1,6 C 8,5 C 4,8 km/h (1 Bft) 100,00 %
08.03.2017 14:00 8,7 C 63 % 1023,7 hPa 0,0 l/m 2,9 km/h (1 Bft) S 183 2 min 0,178 mm 1,4 UV-I 581 W/m 2,1 C 8,7 C 6,4 km/h (2 Bft) 91,07 %
08.03.2017 14:02 8,7 C 63 % 1023,6 hPa 0,0 l/m 4,5 km/h (1 Bft) SO 128 2 min 0,000 mm 1,3 UV-I 542 W/m 2,1 C 8,7 C 9,7 km/h (2 Bft) 97,56 %
08.03.2017 14:04 8,8 C 63 % 1023,6 hPa 0,0 l/m 4,0 km/h (1 Bft) S 173 2 min 0,000 mm 1,3 UV-I 546 W/m 2,2 C 8,8 C 6,4 km/h (2 Bft) 96,43 %
08.03.2017 14:06 8,9 C 63 % 1023,6 hPa 0,0 l/m 7,3 km/h (2 Bft) SW 217 2 min 0,000 mm 1,3 UV-I 539 W/m 2,2 C 8,2 C 14,5 km/h (3 Bft) 96,43 %
08.03.2017 14:08 9,1 C 61 % 1023,7 hPa 0,0 l/m 3,3 km/h (1 Bft) W-SW 240 2 min 0,000 mm 1,3 UV-I 526 W/m 2,0 C 9,1 C 6,4 km/h (2 Bft) 97,56 %
08.03.2017 14:10 9,0 C 61 % 1023,6 hPa 0,0 l/m 4,8 km/h (1 Bft) SW 227 2 min 0,000 mm 1,3 UV-I 494 W/m 1,9 C 9,0 C 11,3 km/h (2 Bft) 96,23 %
08.03.2017 14:12 9,0 C 60 % 1023,6 hPa 0,0 l/m 6,2 km/h (2 Bft) W-SW 249 2 min 0,000 mm 1,3 UV-I 513 W/m 1,7 C 9,0 C 11,3 km/h (2 Bft) 87,80 %
08.03.2017 14:14 8,9 C 61 % 1023,5 hPa 0,0 l/m 3,0 km/h (1 Bft) W-NW 288 2 min 0,000 mm 1,2 UV-I 479 W/m 1,8 C 8,9 C 12,9 km/h (3 Bft) 95,74 %
08.03.2017 14:16 8,9 C 64 % 1023,5 hPa 0,0 l/m 6,0 km/h (2 Bft) NW 312 2 min 0,000 mm 1,2 UV-I 451 W/m 2,5 C 8,9 C 11,3 km/h (2 Bft) 92,00 %
08.03.2017 14:18 9,0 C 64 % 1023,5 hPa 0,0 l/m 4,3 km/h (1 Bft) SO 127 2 min 0,000 mm 1,2 UV-I 461 W/m 2,6 C 9,0 C 6,4 km/h (2 Bft) 95,12 %
08.03.2017 14:20 9,0 C 62 % 1023,4 hPa 0,0 l/m 4,3 km/h (1 Bft) S 169 2 min 0,000 mm 1,1 UV-I 442 W/m 2,1 C 9,0 C 9,7 km/h (2 Bft) 95,74 %
08.03.2017 14:22 9,1 C 63 % 1023,4 hPa 0,0 l/m 6,8 km/h (2 Bft) S-SW 193 2 min 0,000 mm 1,1 UV-I 435 W/m 2,4 C 8,8 C 12,9 km/h (3 Bft) 93,62 %
08.03.2017 14:24 9,3 C 63 % 1023,4 hPa 0,0 l/m 7,2 km/h (2 Bft) S-SW 205 2 min 0,000 mm 1,1 UV-I 434 W/m 2,6 C 8,7 C 11,3 km/h (2 Bft) 96,23 %
08.03.2017 14:26 9,2 C 60 % 1023,4 hPa 0,0 l/m 4,4 km/h (1 Bft) W-SW 246 2 min 0,000 mm 1,1 UV-I 416 W/m 1,8 C 9,2 C 8,0 km/h (2 Bft) 91,43 %
08.03.2017 14:28 9,1 C 63 % 1023,4 hPa 0,0 l/m 3,2 km/h (1 Bft) S 188 2 min 0,000 mm 1,0 UV-I 380 W/m 2,4 C 9,1 C 6,4 km/h (2 Bft) 96,23 %
08.03.2017 14:30 9,0 C 61 % 1023,4 hPa 0,0 l/m 3,9 km/h (1 Bft) SO 146 2 min 0,000 mm 1,0 UV-I 381 W/m 1,9 C 9,0 C 8,0 km/h (2 Bft) 96,23 %
08.03.2017 14:32 8,9 C 61 % 1023,4 hPa 0,0 l/m 3,3 km/h (1 Bft) SO 144 2 min 0,000 mm 1,0 UV-I 362 W/m 1,8 C 8,9 C 8,0 km/h (2 Bft) 95,12 %
08.03.2017 14:34 8,8 C 61 % 1023,4 hPa 0,0 l/m 2,6 km/h (1 Bft) S-SO 154 2 min 0,000 mm 1,0 UV-I 361 W/m 1,7 C 8,8 C 6,4 km/h (2 Bft) 91,67 %
08.03.2017 14:36 8,8 C 62 % 1023,3 hPa 0,0 l/m 3,9 km/h (1 Bft) S-SO 158 2 min 0,000 mm 0,9 UV-I 354 W/m 1,9 C 8,8 C 8,0 km/h (2 Bft) 95,12 %
08.03.2017 14:38 8,8 C 64 % 1023,3 hPa 0,0 l/m 2,2 km/h (1 Bft) S 175 2 min 0,000 mm 0,9 UV-I 349 W/m 2,4 C 8,8 C 6,4 km/h (2 Bft) 96,23 %
08.03.2017 14:40 8,8 C 61 % 1023,3 hPa 0,0 l/m 1,7 km/h (1 Bft) S-SO 168 2 min 0,000 mm 0,9 UV-I 346 W/m 1,7 C 8,8 C 3,2 km/h (1 Bft) 92,68 %
08.03.2017 14:42 8,8 C 62 % 1023,3 hPa 0,0 l/m 3,1 km/h (1 Bft) SW 222 2 min 0,000 mm 0,9 UV-I 340 W/m 1,9 C 8,8 C 6,4 km/h (2 Bft) 94,34 %
08.03.2017 14:44 8,8 C 60 % 1023,3 hPa 0,0 l/m 3,6 km/h (1 Bft) S-SO 163 2 min 0,000 mm 0,9 UV-I 336 W/m 1,5 C 8,8 C 6,4 km/h (2 Bft) 96,00 %
08.03.2017 14:46 8,8 C 60 % 1023,3 hPa 0,0 l/m 2,0 km/h (1 Bft) S-SO 155 2 min 0,000 mm 0,8 UV-I 327 W/m 1,5 C 8,8 C 3,2 km/h (1 Bft) 97,14 %
08.03.2017 14:48 8,8 C 62 % 1023,3 hPa 0,0 l/m 3,7 km/h (1 Bft) S 169 2 min 0,000 mm 0,8 UV-I 317 W/m 1,9 C 8,8 C 6,4 km/h (2 Bft) 94,00 %
08.03.2017 14:50 8,8 C 60 % 1023,3 hPa 0,0 l/m 3,7 km/h (1 Bft) SW 235 2 min 0,000 mm 0,8 UV-I 309 W/m 1,5 C 8,8 C 6,4 km/h (2 Bft) 96,00 %
08.03.2017 14:52 8,8 C 62 % 1023,3 hPa 0,0 l/m 3,4 km/h (1 Bft) S-SW 212 2 min 0,000 mm 0,8 UV-I 321 W/m 1,9 C 8,8 C 6,4 km/h (2 Bft) 96,23 %
08.03.2017 14:54 8,8 C 60 % 1023,2 hPa 0,0 l/m 2,1 km/h (1 Bft) S-SO 158 2 min 0,000 mm 0,8 UV-I 316 W/m 1,5 C 8,8 C 4,8 km/h (1 Bft) 92,11 %
08.03.2017 14:56 8,9 C 62 % 1023,2 hPa 0,0 l/m 2,2 km/h (1 Bft) SO 128 2 min 0,000 mm 0,8 UV-I 307 W/m 2,0 C 8,9 C 4,8 km/h (1 Bft) 97,73 %
08.03.2017 14:58 9,0 C 63 % 1023,2 hPa 0,0 l/m 3,7 km/h (1 Bft) SO 128 2 min 0,000 mm 0,7 UV-I 304 W/m 2,3 C 9,0 C 6,4 km/h (2 Bft) 96,36 %
08.03.2017 15:00 9,1 C 62 % 1023,2 hPa 0,0 l/m 5,7 km/h (1 Bft) SO 137 2 min 0,203 mm 0,7 UV-I 299 W/m 2,2 C 9,1 C 9,7 km/h (2 Bft) 95,12 %
08.03.2017 15:02 9,1 C 61 % 1023,2 hPa 0,0 l/m 3,2 km/h (1 Bft) O-SO 110 2 min 0,000 mm 0,7 UV-I 298 W/m 2,0 C 9,1 C 6,4 km/h (2 Bft) 98,00 %
08.03.2017 15:04 9,1 C 58 % 1023,2 hPa 0,0 l/m 4,3 km/h (1 Bft) SO 144 2 min 0,000 mm 0,7 UV-I 289 W/m 1,3 C 9,1 C 8,0 km/h (2 Bft) 96,23 %
08.03.2017 15:06 8,9 C 61 % 1023,1 hPa 0,0 l/m 7,5 km/h (2 Bft) O-SO 104 2 min 0,000 mm 0,7 UV-I 282 W/m 1,8 C 8,1 C 12,9 km/h (3 Bft) 97,37 %
08.03.2017 15:08 8,9 C 62 % 1023,1 hPa 0,0 l/m 4,2 km/h (1 Bft) SO 136 2 min 0,000 mm 0,6 UV-I 260 W/m 2,0 C 8,9 C 9,7 km/h (2 Bft) 98,08 %
08.03.2017 15:10 8,8 C 61 % 1023,0 hPa 0,0 l/m 2,8 km/h (1 Bft) S-SO 152 2 min 0,000 mm 0,6 UV-I 261 W/m 1,7 C 8,8 C 4,8 km/h (1 Bft) 98,00 %
08.03.2017 15:12 8,8 C 59 % 1023,0 hPa 0,0 l/m 2,4 km/h (1 Bft) S-SO 148 2 min 0,000 mm 0,6 UV-I 257 W/m 1,2 C 8,8 C 4,8 km/h (1 Bft) 95,83 %
08.03.2017 15:14 8,7 C 60 % 1022,9 hPa 0,0 l/m 3,5 km/h (1 Bft) O-NO 73 2 min 0,000 mm 0,6 UV-I 249 W/m 1,4 C 8,7 C 6,4 km/h (2 Bft) 95,38 %
08.03.2017 15:16 8,7 C 61 % 1023,0 hPa 0,0 l/m 3,6 km/h (1 Bft) SO 124 2 min 0,000 mm 0,6 UV-I 240 W/m 1,6 C 8,7 C 6,4 km/h (2 Bft) 94,29 %
08.03.2017 15:18 8,8 C 60 % 1022,9 hPa 0,0 l/m 4,8 km/h (1 Bft) S 173 2 min 0,000 mm 0,6 UV-I 235 W/m 1,5 C 8,8 C 8,0 km/h (2 Bft) 98,31 %
08.03.2017 15:20 8,8 C 60 % 1022,9 hPa 0,0 l/m 2,0 km/h (1 Bft) O-SO 122 2 min 0,000 mm 0,5 UV-I 235 W/m 1,5 C 8,8 C 4,8 km/h (1 Bft) 95,74 %
08.03.2017 15:22 8,8 C 59 % 1022,9 hPa 0,0 l/m 6,3 km/h (2 Bft) SO 130 2 min 0,000 mm 0,5 UV-I 241 W/m 1,2 C 8,8 C 9,7 km/h (2 Bft) 96,00 %
08.03.2017 15:24 8,7 C 59 % 1022,8 hPa 0,0 l/m 3,9 km/h (1 Bft) SO 134 2 min 0,000 mm 0,5 UV-I 248 W/m 1,1 C 8,7 C 6,4 km/h (2 Bft) 97,56 %
08.03.2017 15:26 8,7 C 59 % 1022,7 hPa 0,0 l/m 1,8 km/h (1 Bft) SO 134 2 min 0,000 mm 0,5 UV-I 257 W/m 1,1 C 8,7 C 4,8 km/h (1 Bft) 94,34 %
08.03.2017 15:28 8,7 C 59 % 1022,7 hPa 0,0 l/m 2,5 km/h (1 Bft) SO 128 2 min 0,000 mm 0,5 UV-I 258 W/m 1,1 C 8,7 C 4,8 km/h (1 Bft) 97,87 %
08.03.2017 15:30 8,8 C 59 % 1022,6 hPa 0,0 l/m 1,9 km/h (1 Bft) SO 128 2 min 0,000 mm 0,5 UV-I 258 W/m 1,2 C 8,8 C 3,2 km/h (1 Bft) 97,14 %
08.03.2017 15:32 8,8 C 57 % 1022,5 hPa 0,0 l/m 0,4 km/h (0 Bft) SO 128 2 min 0,000 mm 0,5 UV-I 253 W/m 0,8 C 8,8 C 1,6 km/h (1 Bft) 98,31 %
08.03.2017 15:34 8,8 C 59 % 1022,5 hPa 0,0 l/m 0,4 km/h (0 Bft) SO 128 2 min 0,000 mm 0,5 UV-I 253 W/m 1,2 C 8,8 C 1,6 km/h (1 Bft) 97,14 %
08.03.2017 15:36 8,8 C 58 % 1022,5 hPa 0,0 l/m 1,4 km/h (1 Bft) SO 128 2 min 0,000 mm 0,5 UV-I 255 W/m 1,0 C 8,8 C 3,2 km/h (1 Bft) 96,43 %
08.03.2017 15:38 8,8 C 60 % 1022,4 hPa 0,0 l/m 0,8 km/h (0 Bft) SO 128 2 min 0,000 mm 0,5 UV-I 256 W/m 1,5 C 8,8 C 3,2 km/h (1 Bft) 97,56 %
08.03.2017 15:40 8,8 C 58 % 1022,5 hPa 0,0 l/m 0,9 km/h (0 Bft) SO 129 2 min 0,000 mm 0,5 UV-I 251 W/m 1,0 C 8,8 C 3,2 km/h (1 Bft) 98,11 %
08.03.2017 15:42 8,8 C 58 % 1022,4 hPa 0,0 l/m 2,0 km/h (1 Bft) SO 134 2 min 0,000 mm 0,5 UV-I 257 W/m 1,0 C 8,8 C 4,8 km/h (1 Bft) 100,00 %
08.03.2017 15:44 8,8 C 58 % 1022,4 hPa 0,0 l/m 0,3 km/h (0 Bft) SO 134 2 min 0,000 mm 0,5 UV-I 261 W/m 1,0 C 8,8 C 1,6 km/h (1 Bft) 95,45 %
08.03.2017 15:46 8,8 C 57 % 1022,4 hPa 0,0 l/m 1,6 km/h (1 Bft) SO 134 2 min 0,000 mm 0,5 UV-I 254 W/m 0,8 C 8,8 C 3,2 km/h (1 Bft) 100,00 %
08.03.2017 15:48 8,9 C 60 % 1022,4 hPa 0,0 l/m 1,4 km/h (1 Bft) SO 134 2 min 0,000 mm 0,5 UV-I 253 W/m 1,6 C 8,9 C 3,2 km/h (1 Bft) 96,00 %
08.03.2017 15:50 8,9 C 61 % 1022,4 hPa 0,0 l/m 1,4 km/h (1 Bft) SO 134 2 min 0,000 mm 0,2 UV-I 249 W/m 1,8 C 8,9 C 3,2 km/h (1 Bft) 100,00 %
08.03.2017 15:52 8,9 C 60 % 1022,4 hPa 0,0 l/m 0,4 km/h (0 Bft) SO 134 2 min 0,000 mm 0,0 UV-I 257 W/m 1,6 C 8,9 C 1,6 km/h (1 Bft) 100,00 %
08.03.2017 15:54 8,8 C 58 % 1022,3 hPa 0,0 l/m 1,1 km/h (1 Bft) SO 134 2 min 0,000 mm 0,0 UV-I 257 W/m 1,0 C 8,8 C 3,2 km/h (1 Bft) 100,00 %
08.03.2017 15:56 8,8 C 57 % 1022,2 hPa 0,0 l/m 4,7 km/h (1 Bft) O 96 2 min 0,000 mm 0,0 UV-I 270 W/m 0,8 C 8,8 C 9,7 km/h (2 Bft) 97,87 %
08.03.2017 15:58 8,9 C 58 % 1022,2 hPa 0,0 l/m 3,3 km/h (1 Bft) O 96 2 min 0,000 mm 0,0 UV-I 289 W/m 1,1 C 8,9 C 4,8 km/h (1 Bft) 100,00 %
08.03.2017 16:00 8,9 C 59 % 1022,2 hPa 0,0 l/m 0,4 km/h (0 Bft) O 96 2 min 0,000 mm 0,0 UV-I 292 W/m 1,3 C 8,9 C 1,6 km/h (1 Bft) 98,11 %
08.03.2017 16:02 8,9 C 58 % 1022,2 hPa 0,0 l/m 0,2 km/h (0 Bft) O 96 2 min 0,127 mm 0,0 UV-I 288 W/m 1,1 C 8,9 C 1,6 km/h (1 Bft) 98,11 %
08.03.2017 16:04 8,9 C 57 % 1022,2 hPa 0,0 l/m 0,4 km/h (0 Bft) O 96 2 min 0,000 mm 0,0 UV-I 291 W/m 0,9 C 8,9 C 1,6 km/h (1 Bft) 100,00 %
08.03.2017 16:06 9,1 C 58 % 1022,2 hPa 0,0 l/m 1,4 km/h (1 Bft) S 181 2 min 0,000 mm 0,0 UV-I 285 W/m 1,3 C 9,1 C 6,4 km/h (2 Bft) 97,14 %
08.03.2017 16:08 9,1 C 57 % 1022,2 hPa 0,0 l/m 2,5 km/h (1 Bft) S 181 2 min 0,000 mm 0,0 UV-I 286 W/m 1,0 C 9,1 C 4,8 km/h (1 Bft) 100,00 %
08.03.2017 16:10 9,1 C 57 % 1022,2 hPa 0,0 l/m 2,9 km/h (1 Bft) S 186 2 min 0,000 mm 0,0 UV-I 289 W/m 1,0 C 9,1 C 6,4 km/h (2 Bft) 96,15 %
08.03.2017 16:12 9,1 C 55 % 1022,2 hPa 0,0 l/m 3,4 km/h (1 Bft) S-SO 161 2 min 0,000 mm 0,0 UV-I 280 W/m 0,5 C 9,1 C 6,4 km/h (2 Bft) 98,53 %
08.03.2017 16:14 8,9 C 54 % 1022,1 hPa 0,0 l/m 3,4 km/h (1 Bft) S-SO 156 2 min 0,000 mm 0,0 UV-I 266 W/m 0,1 C 8,9 C 6,4 km/h (2 Bft) 100,00 %
08.03.2017 16:16 8,8 C 55 % 1022,0 hPa 0,0 l/m 1,6 km/h (1 Bft) SO 144 2 min 0,000 mm 0,0 UV-I 253 W/m 0,3 C 8,8 C 3,2 km/h (1 Bft) 93,18 %
08.03.2017 16:18 8,8 C 55 % 1022,0 hPa 0,0 l/m 1,3 km/h (1 Bft) SO 144 2 min 0,000 mm 0,0 UV-I 229 W/m 0,3 C 8,8 C 3,2 km/h (1 Bft) 97,87 %
08.03.2017 16:20 8,8 C 56 % 1021,9 hPa 0,0 l/m 1,2 km/h (1 Bft) SO 144 2 min 0,000 mm 0,0 UV-I 215 W/m 0,5 C 8,8 C 3,2 km/h (1 Bft) 94,74 %
08.03.2017 16:22 8,9 C 59 % 1021,9 hPa 0,0 l/m 0,1 km/h (0 Bft) SO 144 2 min 0,000 mm 0,0 UV-I 209 W/m 1,3 C 8,9 C 1,6 km/h (1 Bft) 98,11 %
08.03.2017 16:24 8,9 C 57 % 1021,8 hPa 0,0 l/m 0,7 km/h (0 Bft) SO 144 2 min 0,000 mm 0,0 UV-I 209 W/m 0,9 C 8,9 C 3,2 km/h (1 Bft) 96,00 %
08.03.2017 16:26 9,0 C 57 % 1021,8 hPa 0,0 l/m 5,1 km/h (1 Bft) O-SO 113 2 min 0,000 mm 0,0 UV-I 220 W/m 0,9 C 9,0 C 6,4 km/h (2 Bft) 95,12 %
08.03.2017 16:28 9,0 C 58 % 1021,7 hPa 0,0 l/m 3,6 km/h (1 Bft) S-SO 153 2 min 0,000 mm 0,0 UV-I 225 W/m 1,2 C 9,0 C 6,4 km/h (2 Bft) 98,00 %
08.03.2017 16:30 8,9 C 58 % 1021,6 hPa 0,0 l/m 3,3 km/h (1 Bft) S-SO 154 2 min 0,000 mm 0,0 UV-I 229 W/m 1,1 C 8,9 C 8,0 km/h (2 Bft) 92,59 %
08.03.2017 16:32 8,9 C 57 % 1021,7 hPa 0,0 l/m 5,0 km/h (1 Bft) S-SO 160 2 min 0,000 mm 0,0 UV-I 208 W/m 0,9 C 8,9 C 8,0 km/h (2 Bft) 98,57 %
08.03.2017 16:34 8,8 C 57 % 1021,6 hPa 0,0 l/m 7,3 km/h (2 Bft) O-SO 123 2 min 0,000 mm 0,0 UV-I 185 W/m 0,8 C 8,1 C 11,3 km/h (2 Bft) 93,33 %
08.03.2017 16:36 8,8 C 58 % 1021,6 hPa 0,0 l/m 7,3 km/h (2 Bft) O-SO 117 2 min 0,000 mm 0,0 UV-I 168 W/m 1,0 C 8,1 C 11,3 km/h (2 Bft) 98,00 %
08.03.2017 16:38 8,8 C 58 % 1021,6 hPa 0,0 l/m 4,8 km/h (1 Bft) SO 124 2 min 0,000 mm 0,0 UV-I 166 W/m 1,0 C 8,8 C 11,3 km/h (2 Bft) 94,74 %
08.03.2017 16:40 8,8 C 60 % 1021,6 hPa 0,0 l/m 3,9 km/h (1 Bft) S-SO 152 2 min 0,000 mm 0,0 UV-I 154 W/m 1,5 C 8,8 C 6,4 km/h (2 Bft) 96,43 %
08.03.2017 16:42 8,7 C 58 % 1021,6 hPa 0,0 l/m 4,7 km/h (1 Bft) SO 131 2 min 0,000 mm 0,0 UV-I 148 W/m 0,9 C 8,7 C 8,0 km/h (2 Bft) 97,56 %
08.03.2017 16:44 8,7 C 59 % 1021,5 hPa 0,0 l/m 4,0 km/h (1 Bft) SO 131 2 min 0,000 mm 0,0 UV-I 147 W/m 1,1 C 8,7 C 4,8 km/h (1 Bft) 96,55 %
08.03.2017 16:46 8,7 C 60 % 1021,5 hPa 0,0 l/m 1,6 km/h (1 Bft) SO 134 2 min 0,000 mm 0,0 UV-I 146 W/m 1,4 C 8,7 C 4,8 km/h (1 Bft) 96,92 %
08.03.2017 16:48 8,7 C 60 % 1021,5 hPa 0,0 l/m 2,3 km/h (1 Bft) SO 134 2 min 0,000 mm 0,0 UV-I 132 W/m 1,4 C 8,7 C 4,8 km/h (1 Bft) 98,00 %
08.03.2017 16:50 8,7 C 59 % 1021,5 hPa 0,0 l/m 2,9 km/h (1 Bft) SO 134 2 min 0,000 mm 0,0 UV-I 135 W/m 1,1 C 8,7 C 4,8 km/h (1 Bft) 92,11 %
08.03.2017 16:52 8,7 C 59 % 1021,5 hPa 0,0 l/m 4,8 km/h (1 Bft) O-SO 107 2 min 0,000 mm 0,0 UV-I 125 W/m 1,1 C 8,7 C 9,7 km/h (2 Bft) 95,74 %
08.03.2017 16:54 8,6 C 61 % 1021,4 hPa 0,0 l/m 7,6 km/h (2 Bft) O-SO 110 2 min 0,000 mm 0,0 UV-I 117 W/m 1,5 C 7,7 C 9,7 km/h (2 Bft) 95,74 %
08.03.2017 16:56 8,6 C 62 % 1021,4 hPa 0,0 l/m 6,8 km/h (2 Bft) O 96 2 min 0,000 mm 0,0 UV-I 105 W/m 1,7 C 8,3 C 11,3 km/h (2 Bft) 95,74 %
08.03.2017 16:58 8,5 C 61 % 1021,4 hPa 0,0 l/m 5,4 km/h (1 Bft) O 89 2 min 0,000 mm 0,0 UV-I 94 W/m 1,4 C 8,5 C 9,7 km/h (2 Bft) 97,96 %
08.03.2017 17:00 8,4 C 62 % 1021,4 hPa 0,0 l/m 4,4 km/h (1 Bft) O 90 2 min 0,101 mm 0,0 UV-I 90 W/m 1,6 C 8,4 C 6,4 km/h (2 Bft) 93,62 %
08.03.2017 17:02 8,4 C 62 % 1021,4 hPa 0,0 l/m 3,3 km/h (1 Bft) O-NO 78 2 min 0,000 mm 0,0 UV-I 83 W/m 1,6 C 8,4 C 6,4 km/h (2 Bft) 92,00 %
08.03.2017 17:04 8,4 C 63 % 1021,3 hPa 0,0 l/m 2,4 km/h (1 Bft) O-SO 104 2 min 0,000 mm 0,0 UV-I 83 W/m 1,8 C 8,4 C 4,8 km/h (1 Bft) 89,47 %
08.03.2017 17:06 8,3 C 63 % 1021,3 hPa 0,0 l/m 5,5 km/h (1 Bft) O-SO 109 2 min 0,000 mm 0,0 UV-I 82 W/m 1,7 C 8,3 C 11,3 km/h (2 Bft) 92,86 %
08.03.2017 17:08 8,3 C 62 % 1021,3 hPa 0,0 l/m 5,0 km/h (1 Bft) O-SO 107 2 min 0,000 mm 0,0 UV-I 75 W/m 1,5 C 8,3 C 6,4 km/h (2 Bft) 94,00 %
08.03.2017 17:10 8,2 C 63 % 1021,3 hPa 0,0 l/m 4,0 km/h (1 Bft) O 90 2 min 0,000 mm 0,0 UV-I 69 W/m 1,6 C 8,2 C 6,4 km/h (2 Bft) 100,00 %
08.03.2017 17:12 8,2 C 63 % 1021,3 hPa 0,0 l/m 4,6 km/h (1 Bft) O 94 0 min 0,000 mm 0,0 UV-I 63 W/m 1,6 C 8,2 C 6,4 km/h (2 Bft) 98,00 %
08.03.2017 17:14 8,2 C 64 % 1021,2 hPa 0,0 l/m 4,4 km/h (1 Bft) O 84 0 min 0,000 mm 0,0 UV-I 56 W/m 1,8 C 8,2 C 6,4 km/h (2 Bft) 97,44 %
08.03.2017 17:16 8,1 C 62 % 1021,3 hPa 0,0 l/m 5,3 km/h (1 Bft) O-NO 69 0 min 0,000 mm 0,0 UV-I 50 W/m 1,3 C 8,1 C 8,0 km/h (2 Bft) 98,00 %
08.03.2017 17:18 8,2 C 63 % 1021,2 hPa 0,0 l/m 4,4 km/h (1 Bft) O-NO 69 0 min 0,000 mm 0,0 UV-I 44 W/m 1,6 C 8,2 C 6,4 km/h (2 Bft) 100,00 %
08.03.2017 17:20 8,1 C 63 % 1021,2 hPa 0,0 l/m 5,1 km/h (1 Bft) O-NO 67 0 min 0,000 mm 0,0 UV-I 38 W/m 1,5 C 8,1 C 8,0 km/h (2 Bft) 92,11 %
08.03.2017 17:22 8,1 C 63 % 1021,2 hPa 0,0 l/m 4,9 km/h (1 Bft) O 82 0 min 0,000 mm 0,0 UV-I 33 W/m 1,5 C 8,1 C 8,0 km/h (2 Bft) 98,11 %
08.03.2017 17:24 8,0 C 63 % 1021,2 hPa 0,0 l/m 5,7 km/h (1 Bft) O 82 0 min 0,000 mm 0,0 UV-I 30 W/m 1,4 C 8,0 C 8,0 km/h (2 Bft) 97,56 %
08.03.2017 17:26 7,9 C 63 % 1021,1 hPa 0,0 l/m 4,0 km/h (1 Bft) O 86 0 min 0,000 mm 0,0 UV-I 26 W/m 1,3 C 7,9 C 6,4 km/h (2 Bft) 95,74 %
08.03.2017 17:28 7,9 C 64 % 1021,2 hPa 0,0 l/m 4,8 km/h (1 Bft) O 87 0 min 0,000 mm 0,0 UV-I 25 W/m 1,5 C 7,9 C 6,4 km/h (2 Bft) 94,00 %
08.03.2017 17:30 7,8 C 65 % 1021,2 hPa 0,0 l/m 2,7 km/h (1 Bft) O 87 0 min 0,000 mm 0,0 UV-I 25 W/m 1,6 C 7,8 C 4,8 km/h (1 Bft) 100,00 %
08.03.2017 17:32 7,7 C 66 % 1021,2 hPa 0,0 l/m 3,6 km/h (1 Bft) O 87 0 min 0,000 mm 0,0 UV-I 23 W/m 1,8 C 7,7 C 4,8 km/h (1 Bft) 100,00 %
08.03.2017 17:34 7,6 C 66 % 1021,2 hPa 0,0 l/m 3,1 km/h (1 Bft) O 87 0 min 0,000 mm 0,0 UV-I 23 W/m 1,7 C 7,6 C 4,8 km/h (1 Bft) 95,12 %
08.03.2017 17:36 7,5 C 67 % 1021,1 hPa 0,0 l/m 4,3 km/h (1 Bft) O 87 0 min 0,000 mm 0,0 UV-I 21 W/m 1,8 C 7,5 C 6,4 km/h (2 Bft) 98,21 %
08.03.2017 17:38 7,4 C 68 % 1021,1 hPa 0,0 l/m 5,1 km/h (1 Bft) O 88 0 min 0,000 mm 0,0 UV-I 21 W/m 1,9 C 7,4 C 6,4 km/h (2 Bft) 100,00 %
08.03.2017 17:40 7,3 C 68 % 1021,1 hPa 0,0 l/m 5,4 km/h (1 Bft) O 90 0 min 0,000 mm 0,0 UV-I 19 W/m 1,8 C 7,3 C 6,4 km/h (2 Bft) 96,77 %
08.03.2017 17:42 7,3 C 69 % 1021,1 hPa 0,0 l/m 5,3 km/h (1 Bft) O 86 0 min 0,000 mm 0,0 UV-I 17 W/m 2,0 C 7,3 C 6,4 km/h (2 Bft) 96,00 %
08.03.2017 17:44 7,2 C 69 % 1021,1 hPa 0,0 l/m 5,8 km/h (2 Bft) O 90 0 min 0,000 mm 0,0 UV-I 15 W/m 1,9 C 7,2 C 6,4 km/h (2 Bft) 100,00 %
08.03.2017 17:46 7,2 C 69 % 1021,1 hPa 0,0 l/m 5,9 km/h (2 Bft) O 88 2 min 0,000 mm 0,0 UV-I 13 W/m 1,9 C 7,2 C 11,3 km/h (2 Bft) 100,00 %
08.03.2017 17:48 7,2 C 69 % 1021,1 hPa 0,0 l/m 5,3 km/h (1 Bft) O 83 2 min 0,000 mm 0,0 UV-I 12 W/m 1,9 C 7,2 C 9,7 km/h (2 Bft) 94,87 %
08.03.2017 17:50 7,2 C 69 % 1021,1 hPa 0,0 l/m 4,7 km/h (1 Bft) O 82 0 min 0,000 mm 0,0 UV-I 11 W/m 1,9 C 7,2 C 6,4 km/h (2 Bft) 96,43 %
08.03.2017 17:52 7,2 C 70 % 1021,1 hPa 0,0 l/m 5,9 km/h (2 Bft) O 81 0 min 0,000 mm 0,0 UV-I 9 W/m 2,1 C 7,2 C 8,0 km/h (2 Bft) 97,73 %
08.03.2017 17:54 7,2 C 69 % 1021,1 hPa 0,0 l/m 4,2 km/h (1 Bft) O 82 0 min 0,000 mm 0,0 UV-I 7 W/m 1,9 C 7,2 C 6,4 km/h (2 Bft) 98,00 %
08.03.2017 17:56 7,2 C 69 % 1021,1 hPa 0,0 l/m 4,5 km/h (1 Bft) O 82 0 min 0,000 mm 0,0 UV-I 7 W/m 1,9 C 7,2 C 6,4 km/h (2 Bft) 98,00 %
08.03.2017 17:58 7,1 C 70 % 1021,1 hPa 0,0 l/m 4,5 km/h (1 Bft) O 81 0 min 0,000 mm 0,0 UV-I 6 W/m 2,0 C 7,1 C 4,8 km/h (1 Bft) 100,00 %
08.03.2017 18:00 7,1 C 70 % 1021,1 hPa 0,0 l/m 4,8 km/h (1 Bft) O-NO 78 0 min 0,026 mm 0,0 UV-I 5 W/m 2,0 C 7,1 C 6,4 km/h (2 Bft) 98,00 %
08.03.2017 18:02 6,9 C 71 % 1021,1 hPa 0,0 l/m 4,5 km/h (1 Bft) O-NO 78 0 min 0,000 mm 0,0 UV-I 5 W/m 2,0 C 6,9 C 4,8 km/h (1 Bft) 97,73 %
08.03.2017 18:04 6,8 C 71 % 1021,1 hPa 0,0 l/m 4,4 km/h (1 Bft) O 84 0 min 0,000 mm 0,0 UV-I 5 W/m 1,9 C 6,8 C 6,4 km/h (2 Bft) 97,87 %
08.03.2017 18:06 6,8 C 71 % 1021,1 hPa 0,0 l/m 5,8 km/h (2 Bft) O 82 0 min 0,000 mm 0,0 UV-I 5 W/m 1,9 C 6,8 C 6,4 km/h (2 Bft) 90,91 %
08.03.2017 18:08 6,8 C 72 % 1021,0 hPa 0,0 l/m 6,4 km/h (2 Bft) O 82 0 min 0,000 mm 0,0 UV-I 2 W/m 2,1 C 6,8 C 11,3 km/h (2 Bft) 96,23 %
08.03.2017 18:10 6,7 C 72 % 1021,0 hPa 0,0 l/m 5,7 km/h (1 Bft) O 84 0 min 0,000 mm 0,0 UV-I 0 W/m 2,0 C 6,7 C 8,0 km/h (2 Bft) 100,00 %
08.03.2017 18:12 6,7 C 72 % 1020,9 hPa 0,0 l/m 5,6 km/h (1 Bft) O 80 0 min 0,000 mm 0,0 UV-I 0 W/m 2,0 C 6,7 C 8,0 km/h (2 Bft) 97,56 %
08.03.2017 18:14 6,7 C 71 % 1020,9 hPa 0,0 l/m 6,7 km/h (2 Bft) O 90 0 min 0,000 mm 0,0 UV-I 0 W/m 1,8 C 6,5 C 11,3 km/h (2 Bft) 100,00 %
08.03.2017 18:16 6,7 C 72 % 1020,9 hPa 0,0 l/m 5,7 km/h (1 Bft) O 85 0 min 0,000 mm 0,0 UV-I 0 W/m 2,0 C 6,7 C 8,0 km/h (2 Bft) 97,87 %
08.03.2017 18:18 6,7 C 71 % 1020,9 hPa 0,0 l/m 5,8 km/h (2 Bft) O 85 0 min 0,000 mm 0,0 UV-I 0 W/m 1,8 C 6,7 C 8,0 km/h (2 Bft) 100,00 %
08.03.2017 18:20 6,7 C 71 % 1020,9 hPa 0,0 l/m 6,4 km/h (2 Bft) O 95 0 min 0,000 mm 0,0 UV-I 0 W/m 1,8 C 6,7 C 9,7 km/h (2 Bft) 98,21 %
08.03.2017 18:22 6,8 C 71 % 1020,9 hPa 0,0 l/m 5,7 km/h (1 Bft) O 90 0 min 0,000 mm 0,0 UV-I 0 W/m 1,9 C 6,8 C 9,7 km/h (2 Bft) 100,00 %
08.03.2017 18:24 6,8 C 71 % 1020,9 hPa 0,0 l/m 3,7 km/h (1 Bft) O 91 0 min 0,000 mm 0,0 UV-I 0 W/m 1,9 C 6,8 C 4,8 km/h (1 Bft) 100,00 %
08.03.2017 18:26 6,7 C 72 % 1020,9 hPa 0,0 l/m 6,1 km/h (2 Bft) O 92 0 min 0,000 mm 0,0 UV-I 0 W/m 2,0 C 6,7 C 9,7 km/h (2 Bft) 100,00 %
08.03.2017 18:28 6,6 C 72 % 1020,9 hPa 0,0 l/m 6,7 km/h (2 Bft) O 101 0 min 0,000 mm 0,0 UV-I 0 W/m 1,9 C 6,4 C 9,7 km/h (2 Bft) 98,11 %
08.03.2017 18:30 6,6 C 72 % 1020,8 hPa 0,0 l/m 6,0 km/h (2 Bft) O 101 0 min 0,000 mm 0,0 UV-I 0 W/m 1,9 C 6,6 C 9,7 km/h (2 Bft) 97,87 %
08.03.2017 18:32 6,6 C 72 % 1020,8 hPa 0,0 l/m 7,5 km/h (2 Bft) O 95 0 min 0,000 mm 0,0 UV-I 0 W/m 1,9 C 5,7 C 11,3 km/h (2 Bft) 94,87 %
08.03.2017 18:34 6,6 C 73 % 1020,8 hPa 0,0 l/m 6,9 km/h (2 Bft) O 96 0 min 0,000 mm 0,0 UV-I 0 W/m 2,1 C 6,2 C 9,7 km/h (2 Bft) 100,00 %
08.03.2017 18:36 6,6 C 73 % 1020,7 hPa 0,0 l/m 8,0 km/h (2 Bft) O 90 0 min 0,000 mm 0,0 UV-I 0 W/m 2,1 C 5,3 C 11,3 km/h (2 Bft) 97,37 %
08.03.2017 18:38 6,5 C 73 % 1020,6 hPa 0,0 l/m 10,1 km/h (2 Bft) O 92 0 min 0,000 mm 0,0 UV-I 0 W/m 2,0 C 3,7 C 12,9 km/h (3 Bft) 100,00 %
08.03.2017 18:40 6,6 C 73 % 1020,6 hPa 0,0 l/m 10,1 km/h (2 Bft) O-SO 109 0 min 0,000 mm 0,0 UV-I 0 W/m 2,1 C 3,8 C 12,9 km/h (3 Bft) 97,37 %
08.03.2017 18:42 6,6 C 73 % 1020,5 hPa 0,0 l/m 7,8 km/h (2 Bft) O 82 0 min 0,000 mm 0,0 UV-I 0 W/m 2,1 C 5,4 C 12,9 km/h (3 Bft) 100,00 %
08.03.2017 18:44 6,6 C 73 % 1020,5 hPa 0,0 l/m 7,8 km/h (2 Bft) O 99 0 min 0,000 mm 0,0 UV-I 0 W/m 2,1 C 5,4 C 12,9 km/h (3 Bft) 100,00 %
08.03.2017 18:46 6,6 C 72 % 1020,5 hPa 0,0 l/m 8,3 km/h (2 Bft) O-SO 102 0 min 0,000 mm 0,0 UV-I 0 W/m 1,9 C 5,1 C 12,9 km/h (3 Bft) 100,00 %
08.03.2017 18:48 6,6 C 72 % 1020,5 hPa 0,0 l/m 8,2 km/h (2 Bft) O-SO 108 0 min 0,000 mm 0,0 UV-I 0 W/m 1,9 C 5,1 C 12,9 km/h (3 Bft) 100,00 %
08.03.2017 18:50 6,6 C 72 % 1020,4 hPa 0,0 l/m 10,6 km/h (2 Bft) O 88 0 min 0,000 mm 0,0 UV-I 0 W/m 1,9 C 3,4 C 14,5 km/h (3 Bft) 100,00 %
08.03.2017 18:52 6,6 C 72 % 1020,3 hPa 0,0 l/m 8,1 km/h (2 Bft) O 88 0 min 0,000 mm 0,0 UV-I 0 W/m 1,9 C 5,2 C 11,3 km/h (2 Bft) 97,73 %
08.03.2017 18:54 6,6 C 72 % 1020,3 hPa 0,0 l/m 10,6 km/h (2 Bft) O 96 0 min 0,000 mm 0,0 UV-I 0 W/m 1,9 C 3,4 C 16,1 km/h (3 Bft) 95,45 %
08.03.2017 18:56 6,6 C 72 % 1020,4 hPa 0,0 l/m 7,5 km/h (2 Bft) O 92 0 min 0,000 mm 0,0 UV-I 0 W/m 1,9 C 5,7 C 11,3 km/h (2 Bft) 96,00 %
08.03.2017 18:58 6,6 C 73 % 1020,4 hPa 0,0 l/m 8,1 km/h (2 Bft) O-NO 78 0 min 0,000 mm 0,0 UV-I 0 W/m 2,1 C 5,2 C 11,3 km/h (2 Bft) 94,44 %
08.03.2017 19:00 6,5 C 73 % 1020,4 hPa 0,0 l/m 7,4 km/h (2 Bft) O-SO 109 0 min 0,000 mm 0,0 UV-I 0 W/m 2,0 C 5,7 C 11,3 km/h (2 Bft) 94,34 %
08.03.2017 19:02 6,5 C 73 % 1020,4 hPa 0,0 l/m 7,3 km/h (2 Bft) O 88 0 min 0,025 mm 0,0 UV-I 0 W/m 2,0 C 5,7 C 12,9 km/h (3 Bft) 95,74 %
08.03.2017 19:04 6,4 C 73 % 1020,4 hPa 0,0 l/m 6,0 km/h (2 Bft) O 84 0 min 0,000 mm 0,0 UV-I 0 W/m 1,9 C 6,4 C 11,3 km/h (2 Bft) 93,62 %
08.03.2017 19:06 6,4 C 73 % 1020,3 hPa 0,0 l/m 8,4 km/h (2 Bft) O 90 0 min 0,000 mm 0,0 UV-I 0 W/m 1,9 C 4,8 C 11,3 km/h (2 Bft) 96,00 %
08.03.2017 19:08 6,4 C 73 % 1020,4 hPa 0,0 l/m 6,7 km/h (2 Bft) O 90 0 min 0,000 mm 0,0 UV-I 0 W/m 1,9 C 6,2 C 11,3 km/h (2 Bft) 92,86 %
08.03.2017 19:10 6,4 C 73 % 1020,3 hPa 0,0 l/m 7,2 km/h (2 Bft) O 84 0 min 0,000 mm 0,0 UV-I 0 W/m 1,9 C 5,7 C 9,7 km/h (2 Bft) 95,74 %
08.03.2017 19:12 6,4 C 73 % 1020,3 hPa 0,0 l/m 6,0 km/h (2 Bft) O 95 0 min 0,000 mm 0,0 UV-I 0 W/m 1,9 C 6,4 C 8,0 km/h (2 Bft) 95,74 %
08.03.2017 19:14 6,4 C 73 % 1020,3 hPa 0,0 l/m 6,1 km/h (2 Bft) O 83 0 min 0,000 mm 0,0 UV-I 0 W/m 1,9 C 6,4 C 11,3 km/h (2 Bft) 94,00 %
08.03.2017 19:16 6,4 C 73 % 1020,3 hPa 0,0 l/m 6,0 km/h (2 Bft) O-NO 78 0 min 0,000 mm 0,0 UV-I 0 W/m 1,9 C 6,4 C 11,3 km/h (2 Bft) 95,74 %
08.03.2017 19:18 6,4 C 73 % 1020,3 hPa 0,0 l/m 3,8 km/h (1 Bft) O-SO 103 0 min 0,000 mm 0,0 UV-I 0 W/m 1,9 C 6,4 C 6,4 km/h (2 Bft) 95,74 %
08.03.2017 19:20 6,3 C 73 % 1020,3 hPa 0,0 l/m 4,3 km/h (1 Bft) O 80 0 min 0,000 mm 0,0 UV-I 0 W/m 1,8 C 6,3 C 6,4 km/h (2 Bft) 94,34 %
08.03.2017 19:22 6,3 C 73 % 1020,2 hPa 0,0 l/m 5,1 km/h (1 Bft) O 92 0 min 0,000 mm 0,0 UV-I 0 W/m 1,8 C 6,3 C 9,7 km/h (2 Bft) 94,74 %
08.03.2017 19:24 6,2 C 74 % 1020,2 hPa 0,0 l/m 5,0 km/h (1 Bft) O 91 0 min 0,000 mm 0,0 UV-I 0 W/m 1,9 C 6,2 C 6,4 km/h (2 Bft) 94,00 %
08.03.2017 19:26 6,2 C 75 % 1020,2 hPa 0,0 l/m 4,7 km/h (1 Bft) O-SO 105 0 min 0,000 mm 0,0 UV-I 0 W/m 2,1 C 6,2 C 9,7 km/h (2 Bft) 95,12 %
08.03.2017 19:28 6,1 C 75 % 1020,2 hPa 0,0 l/m 4,7 km/h (1 Bft) O 80 0 min 0,000 mm 0,0 UV-I 0 W/m 2,0 C 6,1 C 6,4 km/h (2 Bft) 96,23 %
08.03.2017 19:30 5,9 C 75 % 1020,2 hPa 0,0 l/m 5,4 km/h (1 Bft) O 79 0 min 0,000 mm 0,0 UV-I 0 W/m 1,8 C 5,9 C 8,0 km/h (2 Bft) 98,08 %
08.03.2017 19:32 5,9 C 76 % 1020,1 hPa 0,0 l/m 5,7 km/h (1 Bft) O 82 0 min 0,000 mm 0,0 UV-I 0 W/m 2,0 C 5,9 C 9,7 km/h (2 Bft) 89,47 %
08.03.2017 19:34 5,9 C 76 % 1020,1 hPa 0,0 l/m 5,8 km/h (2 Bft) O-NO 75 0 min 0,000 mm 0,0 UV-I 0 W/m 2,0 C 5,9 C 8,0 km/h (2 Bft) 97,87 %
08.03.2017 19:36 5,8 C 76 % 1020,1 hPa 0,0 l/m 5,0 km/h (1 Bft) O-NO 76 0 min 0,000 mm 0,0 UV-I 0 W/m 1,9 C 5,8 C 6,4 km/h (2 Bft) 97,87 %
08.03.2017 19:38 5,7 C 77 % 1020,1 hPa 0,0 l/m 4,4 km/h (1 Bft) O 81 0 min 0,000 mm 0,0 UV-I 0 W/m 2,0 C 5,7 C 6,4 km/h (2 Bft) 98,11 %
08.03.2017 19:40 5,7 C 77 % 1020,1 hPa 0,0 l/m 4,8 km/h (1 Bft) O 81 0 min 0,000 mm 0,0 UV-I 0 W/m 2,0 C 5,7 C 6,4 km/h (2 Bft) 97,87 %
08.03.2017 19:42 5,5 C 78 % 1020,1 hPa 0,0 l/m 3,0 km/h (1 Bft) O 81 0 min 0,000 mm 0,0 UV-I 0 W/m 2,0 C 5,5 C 6,4 km/h (2 Bft) 97,37 %
08.03.2017 19:44 5,3 C 79 % 1020,1 hPa 0,0 l/m 3,5 km/h (1 Bft) O 81 0 min 0,000 mm 0,0 UV-I 0 W/m 2,0 C 5,3 C 6,4 km/h (2 Bft) 96,23 %
08.03.2017 19:46 5,1 C 79 % 1020,0 hPa 0,0 l/m 5,7 km/h (1 Bft) O-NO 60 0 min 0,000 mm 0,0 UV-I 0 W/m 1,8 C 5,1 C 9,7 km/h (2 Bft) 96,00 %
08.03.2017 19:48 5,1 C 79 % 1020,0 hPa 0,0 l/m 7,3 km/h (2 Bft) O-NO 69 0 min 0,000 mm 0,0 UV-I 0 W/m 1,8 C 4,3 C 9,7 km/h (2 Bft) 90,91 %
08.03.2017 19:50 5,3 C 79 % 1020,0 hPa 0,0 l/m 7,5 km/h (2 Bft) O-NO 72 0 min 0,000 mm 0,0 UV-I 0 W/m 2,0 C 4,3 C 12,9 km/h (3 Bft) 97,62 %
08.03.2017 19:52 5,4 C 78 % 1019,9 hPa 0,0 l/m 7,6 km/h (2 Bft) O 80 0 min 0,000 mm 0,0 UV-I 0 W/m 1,9 C 4,4 C 11,3 km/h (2 Bft) 92,11 %
08.03.2017 19:54 5,4 C 78 % 1020,0 hPa 0,0 l/m 5,2 km/h (1 Bft) O-NO 78 0 min 0,000 mm 0,0 UV-I 0 W/m 1,9 C 5,4 C 6,4 km/h (2 Bft) 96,43 %
08.03.2017 19:56 5,4 C 78 % 1020,1 hPa 0,0 l/m 5,7 km/h (1 Bft) O 85 0 min 0,000 mm 0,0 UV-I 0 W/m 1,9 C 5,4 C 9,7 km/h (2 Bft) 96,43 %
08.03.2017 19:58 5,3 C 78 % 1020,1 hPa 0,0 l/m 5,4 km/h (1 Bft) O 92 0 min 0,000 mm 0,0 UV-I 0 W/m 1,8 C 5,3 C 9,7 km/h (2 Bft) 95,74 %
08.03.2017 20:00 5,3 C 78 % 1020,0 hPa 0,0 l/m 5,5 km/h (1 Bft) O 83 0 min 0,000 mm 0,0 UV-I 0 W/m 1,8 C 5,3 C 8,0 km/h (2 Bft) 97,14 %
08.03.2017 20:02 5,2 C 79 % 1020,0 hPa 0,0 l/m 6,4 km/h (2 Bft) O-NO 68 0 min 0,026 mm 0,0 UV-I 0 W/m 1,9 C 5,2 C 11,3 km/h (2 Bft) 94,34 %
08.03.2017 20:04 5,2 C 79 % 1020,0 hPa 0,0 l/m 6,2 km/h (2 Bft) O 80 0 min 0,000 mm 0,0 UV-I 0 W/m 1,9 C 5,2 C 9,7 km/h (2 Bft) 95,12 %
08.03.2017 20:06 5,1 C 79 % 1020,1 hPa 0,0 l/m 5,7 km/h (1 Bft) O 95 0 min 0,000 mm 0,0 UV-I 0 W/m 1,8 C 5,1 C 8,0 km/h (2 Bft) 92,45 %
08.03.2017 20:08 5,1 C 79 % 1020,1 hPa 0,0 l/m 5,8 km/h (2 Bft) O 82 0 min 0,000 mm 0,0 UV-I 0 W/m 1,8 C 5,1 C 11,3 km/h (2 Bft) 95,74 %
08.03.2017 20:10 5,2 C 79 % 1020,0 hPa 0,0 l/m 4,7 km/h (1 Bft) O 98 0 min 0,000 mm 0,0 UV-I 0 W/m 1,9 C 5,2 C 8,0 km/h (2 Bft) 100,00 %
08.03.2017 20:12 5,2 C 79 % 1020,1 hPa 0,0 l/m 4,1 km/h (1 Bft) O 96 0 min 0,000 mm 0,0 UV-I 0 W/m 1,9 C 5,2 C 6,4 km/h (2 Bft) 97,87 %
08.03.2017 20:14 5,2 C 80 % 1020,0 hPa 0,0 l/m 3,0 km/h (1 Bft) O 96 0 min 0,000 mm 0,0 UV-I 0 W/m 2,0 C 5,2 C 4,8 km/h (1 Bft) 100,00 %
08.03.2017 20:16 5,2 C 80 % 1020,0 hPa 0,0 l/m 2,8 km/h (1 Bft) O 96 0 min 0,000 mm 0,0 UV-I 0 W/m 2,0 C 5,2 C 4,8 km/h (1 Bft) 97,73 %
08.03.2017 20:18 5,1 C 80 % 1019,7 hPa 0,0 l/m 5,6 km/h (1 Bft) O 82 0 min 0,000 mm 0,0 UV-I 0 W/m 1,9 C 5,1 C 11,3 km/h (2 Bft) 100,00 %
08.03.2017 20:20 5,2 C 80 % 1019,7 hPa 0,0 l/m 7,2 km/h (2 Bft) O 94 0 min 0,000 mm 0,0 UV-I 0 W/m 2,0 C 4,5 C 9,7 km/h (2 Bft) 100,00 %
08.03.2017 20:22 5,3 C 79 % 1019,6 hPa 0,0 l/m 5,4 km/h (1 Bft) O-NO 67 0 min 0,000 mm 0,0 UV-I 0 W/m 2,0 C 5,3 C 9,7 km/h (2 Bft) 98,00 %
08.03.2017 20:24 5,4 C 78 % 1019,6 hPa 0,0 l/m 9,7 km/h (2 Bft) O 85 0 min 0,000 mm 0,0 UV-I 0 W/m 1,9 C 2,7 C 12,9 km/h (3 Bft) 97,22 %
08.03.2017 20:26 5,6 C 78 % 1019,5 hPa 0,0 l/m 6,9 km/h (2 Bft) NO 56 0 min 0,000 mm 0,0 UV-I 0 W/m 2,1 C 5,2 C 11,3 km/h (2 Bft) 100,00 %
08.03.2017 20:28 5,6 C 78 % 1019,4 hPa 0,0 l/m 6,8 km/h (2 Bft) O 91 0 min 0,000 mm 0,0 UV-I 0 W/m 2,1 C 5,3 C 11,3 km/h (2 Bft) 97,87 %
08.03.2017 20:30 5,6 C 78 % 1019,4 hPa 0,0 l/m 7,7 km/h (2 Bft) O-SO 108 0 min 0,000 mm 0,0 UV-I 0 W/m 2,1 C 4,5 C 12,9 km/h (3 Bft) 96,00 %
08.03.2017 20:32 5,6 C 78 % 1019,4 hPa 0,0 l/m 9,1 km/h (2 Bft) O 82 0 min 0,000 mm 0,0 UV-I 0 W/m 2,1 C 3,4 C 12,9 km/h (3 Bft) 97,62 %
08.03.2017 20:34 5,6 C 78 % 1019,3 hPa 0,0 l/m 8,6 km/h (2 Bft) O-SO 110 0 min 0,000 mm 0,0 UV-I 0 W/m 2,1 C 3,8 C 11,3 km/h (2 Bft) 98,11 %
08.03.2017 20:36 5,6 C 78 % 1019,3 hPa 0,0 l/m 11,6 km/h (2 Bft) O 89 0 min 0,000 mm 0,0 UV-I 0 W/m 2,1 C 1,7 C 16,1 km/h (3 Bft) 95,74 %
08.03.2017 20:38 5,6 C 78 % 1019,3 hPa 0,0 l/m 8,7 km/h (2 Bft) O-SO 105 0 min 0,000 mm 0,0 UV-I 0 W/m 2,1 C 3,7 C 14,5 km/h (3 Bft) 97,56 %
08.03.2017 20:40 5,6 C 78 % 1019,4 hPa 0,0 l/m 9,2 km/h (2 Bft) O 83 0 min 0,000 mm 0,0 UV-I 0 W/m 2,1 C 3,3 C 12,9 km/h (3 Bft) 100,00 %
08.03.2017 20:42 5,6 C 78 % 1019,4 hPa 0,0 l/m 5,1 km/h (1 Bft) O-SO 114 0 min 0,000 mm 0,0 UV-I 0 W/m 2,1 C 5,6 C 6,4 km/h (2 Bft) 97,56 %
08.03.2017 20:44 5,6 C 79 % 1019,5 hPa 0,0 l/m 4,7 km/h (1 Bft) O-SO 113 0 min 0,000 mm 0,0 UV-I 0 W/m 2,3 C 5,6 C 6,4 km/h (2 Bft) 100,00 %
08.03.2017 20:46 5,5 C 79 % 1019,5 hPa 0,0 l/m 3,6 km/h (1 Bft) O-SO 117 0 min 0,000 mm 0,0 UV-I 0 W/m 2,2 C 5,5 C 4,8 km/h (1 Bft) 97,87 %
08.03.2017 20:48 5,6 C 79 % 1019,5 hPa 0,0 l/m 5,3 km/h (1 Bft) O 96 0 min 0,000 mm 0,0 UV-I 0 W/m 2,3 C 5,6 C 9,7 km/h (2 Bft) 100,00 %
08.03.2017 20:50 5,5 C 79 % 1019,5 hPa 0,0 l/m 2,5 km/h (1 Bft) O 97 0 min 0,000 mm 0,0 UV-I 0 W/m 2,2 C 5,5 C 6,4 km/h (2 Bft) 98,00 %
08.03.2017 20:52 5,6 C 79 % 1019,5 hPa 0,0 l/m 0,5 km/h (0 Bft) O 97 0 min 0,000 mm 0,0 UV-I 0 W/m 2,3 C 5,6 C 1,6 km/h (1 Bft) 97,73 %
08.03.2017 20:54 5,5 C 79 % 1019,5 hPa 0,0 l/m 1,0 km/h (0 Bft) O 97 0 min 0,000 mm 0,0 UV-I 0 W/m 2,2 C 5,5 C 3,2 km/h (1 Bft) 97,87 %
08.03.2017 20:56 5,5 C 79 % 1019,5 hPa 0,0 l/m 0,8 km/h (0 Bft) O-SO 122 0 min 0,000 mm 0,0 UV-I 0 W/m 2,2 C 5,5 C 4,8 km/h (1 Bft) 97,37 %
08.03.2017 20:58 5,5 C 79 % 1019,6 hPa 0,0 l/m 1,9 km/h (1 Bft) O-SO 122 0 min 0,000 mm 0,0 UV-I 0 W/m 2,2 C 5,5 C 3,2 km/h (1 Bft) 100,00 %
08.03.2017 21:00 5,4 C 79 % 1019,6 hPa 0,0 l/m 0,4 km/h (0 Bft) O-SO 122 0 min 0,000 mm 0,0 UV-I 0 W/m 2,1 C 5,4 C 3,2 km/h (1 Bft) 94,74 %
08.03.2017 21:02 5,3 C 80 % 1019,6 hPa 0,0 l/m 2,3 km/h (1 Bft) O-SO 122 0 min 0,025 mm 0,0 UV-I 0 W/m 2,1 C 5,3 C 3,2 km/h (1 Bft) 100,00 %
08.03.2017 21:04 5,2 C 81 % 1019,7 hPa 0,0 l/m 2,5 km/h (1 Bft) O-SO 123 0 min 0,000 mm 0,0 UV-I 0 W/m 2,2 C 5,2 C 4,8 km/h (1 Bft) 98,11 %
08.03.2017 21:06 5,2 C 82 % 1019,7 hPa 0,0 l/m 2,4 km/h (1 Bft) O-SO 123 0 min 0,000 mm 0,0 UV-I 0 W/m 2,4 C 5,2 C 3,2 km/h (1 Bft) 94,87 %
08.03.2017 21:08 5,1 C 82 % 1019,7 hPa 0,0 l/m 3,1 km/h (1 Bft) SO 125 0 min 0,000 mm 0,0 UV-I 0 W/m 2,3 C 5,1 C 4,8 km/h (1 Bft) 96,00 %
08.03.2017 21:10 5,1 C 82 % 1019,6 hPa 0,0 l/m 3,1 km/h (1 Bft) SO 141 0 min 0,000 mm 0,0 UV-I 0 W/m 2,3 C 5,1 C 4,8 km/h (1 Bft) 95,74 %
08.03.2017 21:12 5,0 C 83 % 1019,5 hPa 0,0 l/m 1,6 km/h (1 Bft) SO 145 0 min 0,000 mm 0,0 UV-I 0 W/m 2,4 C 5,0 C 3,2 km/h (1 Bft) 100,00 %
08.03.2017 21:14 5,1 C 83 % 1019,6 hPa 0,0 l/m 3,4 km/h (1 Bft) S-SW 208 0 min 0,000 mm 0,0 UV-I 0 W/m 2,5 C 5,1 C 6,4 km/h (2 Bft) 96,00 %
08.03.2017 21:16 5,0 C 83 % 1019,7 hPa 0,0 l/m 3,4 km/h (1 Bft) W 273 0 min 0,000 mm 0,0 UV-I 0 W/m 2,4 C 5,0 C 4,8 km/h (1 Bft) 97,56 %
08.03.2017 21:18 5,0 C 83 % 1019,6 hPa 0,0 l/m 2,6 km/h (1 Bft) S 182 0 min 0,000 mm 0,0 UV-I 0 W/m 2,4 C 5,0 C 3,2 km/h (1 Bft) 98,21 %
08.03.2017 21:20 5,0 C 83 % 1019,5 hPa 0,0 l/m 3,6 km/h (1 Bft) SO 133 0 min 0,000 mm 0,0 UV-I 0 W/m 2,4 C 5,0 C 6,4 km/h (2 Bft) 97,37 %
08.03.2017 21:22 5,0 C 83 % 1019,6 hPa 0,0 l/m 2,5 km/h (1 Bft) NW 307 0 min 0,000 mm 0,0 UV-I 0 W/m 2,4 C 5,0 C 6,4 km/h (2 Bft) 94,00 %
08.03.2017 21:24 5,0 C 84 % 1019,7 hPa 0,0 l/m 4,3 km/h (1 Bft) W-NW 298 0 min 0,000 mm 0,0 UV-I 0 W/m 2,5 C 5,0 C 6,4 km/h (2 Bft) 95,74 %
08.03.2017 21:26 4,9 C 84 % 1019,7 hPa 0,0 l/m 4,0 km/h (1 Bft) SW 219 0 min 0,000 mm 0,0 UV-I 0 W/m 2,4 C 4,9 C 8,0 km/h (2 Bft) 96,15 %
08.03.2017 21:28 4,9 C 84 % 1019,6 hPa 0,0 l/m 4,7 km/h (1 Bft) S-SW 208 0 min 0,000 mm 0,0 UV-I 0 W/m 2,4 C 4,9 C 8,0 km/h (2 Bft) 96,92 %
08.03.2017 21:30 4,9 C 84 % 1019,7 hPa 0,0 l/m 5,2 km/h (1 Bft) SW 215 0 min 0,000 mm 0,0 UV-I 0 W/m 2,4 C 4,9 C 8,0 km/h (2 Bft) 96,23 %
08.03.2017 21:32 4,9 C 84 % 1019,8 hPa 0,0 l/m 4,1 km/h (1 Bft) W 266 0 min 0,000 mm 0,0 UV-I 0 W/m 2,4 C 4,9 C 6,4 km/h (2 Bft) 95,45 %
08.03.2017 21:34 5,0 C 84 % 1019,8 hPa 0,0 l/m 1,4 km/h (1 Bft) W 266 0 min 0,000 mm 0,0 UV-I 0 W/m 2,5 C 5,0 C 3,2 km/h (1 Bft) 97,56 %
08.03.2017 21:36 5,1 C 83 % 1019,8 hPa 0,0 l/m 4,4 km/h (1 Bft) SW 233 0 min 0,000 mm 0,0 UV-I 0 W/m 2,5 C 5,1 C 6,4 km/h (2 Bft) 93,62 %
08.03.2017 21:38 5,1 C 84 % 1019,9 hPa 0,0 l/m 3,9 km/h (1 Bft) W-SW 238 0 min 0,000 mm 0,0 UV-I 0 W/m 2,6 C 5,1 C 6,4 km/h (2 Bft) 94,34 %
08.03.2017 21:40 5,1 C 84 % 1019,8 hPa 0,0 l/m 3,3 km/h (1 Bft) SW 222 0 min 0,000 mm 0,0 UV-I 0 W/m 2,6 C 5,1 C 6,4 km/h (2 Bft) 97,56 %
08.03.2017 21:42 5,2 C 83 % 1019,8 hPa 0,0 l/m 5,6 km/h (1 Bft) SW 229 0 min 0,000 mm 0,0 UV-I 0 W/m 2,6 C 5,2 C 8,0 km/h (2 Bft) 94,87 %
08.03.2017 21:44 5,2 C 83 % 1020,0 hPa 0,0 l/m 10,3 km/h (2 Bft) S-SW 211 0 min 0,000 mm 0,0 UV-I 0 W/m 2,6 C 2,1 C 14,5 km/h (3 Bft) 96,36 %
08.03.2017 21:46 5,2 C 83 % 1019,9 hPa 0,0 l/m 6,1 km/h (2 Bft) SW 236 0 min 0,000 mm 0,0 UV-I 0 W/m 2,6 C 5,2 C 11,3 km/h (2 Bft) 98,21 %
08.03.2017 21:48 5,2 C 83 % 1020,0 hPa 0,0 l/m 7,9 km/h (2 Bft) S-SW 202 0 min 0,000 mm 0,0 UV-I 0 W/m 2,6 C 3,9 C 11,3 km/h (2 Bft) 97,44 %
08.03.2017 21:50 5,2 C 83 % 1020,0 hPa 0,0 l/m 7,1 km/h (2 Bft) S-SW 206 0 min 0,000 mm 0,0 UV-I 0 W/m 2,6 C 4,6 C 11,3 km/h (2 Bft) 100,00 %
08.03.2017 21:52 5,2 C 83 % 1020,1 hPa 0,0 l/m 8,2 km/h (2 Bft) SW 217 0 min 0,000 mm 0,0 UV-I 0 W/m 2,6 C 3,6 C 12,9 km/h (3 Bft) 92,68 %
08.03.2017 21:54 5,2 C 83 % 1020,1 hPa 0,0 l/m 6,8 km/h (2 Bft) SW 218 0 min 0,000 mm 0,0 UV-I 0 W/m 2,6 C 4,9 C 11,3 km/h (2 Bft) 94,92 %
08.03.2017 21:56 5,2 C 83 % 1020,0 hPa 0,0 l/m 7,3 km/h (2 Bft) S-SW 198 0 min 0,000 mm 0,0 UV-I 0 W/m 2,6 C 4,4 C 11,3 km/h (2 Bft) 95,45 %
08.03.2017 21:58 5,2 C 83 % 1020,0 hPa 0,0 l/m 5,6 km/h (1 Bft) W 270 0 min 0,000 mm 0,0 UV-I 0 W/m 2,6 C 5,2 C 11,3 km/h (2 Bft) 100,00 %
08.03.2017 22:00 5,2 C 84 % 1020,0 hPa 0,0 l/m 3,2 km/h (1 Bft) W 275 0 min 0,000 mm 0,0 UV-I 0 W/m 2,7 C 5,2 C 4,8 km/h (1 Bft) 100,00 %
08.03.2017 22:02 5,2 C 84 % 1020,1 hPa 0,0 l/m 4,3 km/h (1 Bft) W-NW 295 0 min 0,000 mm 0,0 UV-I 0 W/m 2,7 C 5,2 C 9,7 km/h (2 Bft) 100,00 %
08.03.2017 22:04 5,2 C 84 % 1019,9 hPa 0,0 l/m 2,6 km/h (1 Bft) W-NW 296 0 min 0,000 mm 0,0 UV-I 0 W/m 2,7 C 5,2 C 4,8 km/h (1 Bft) 97,37 %
08.03.2017 22:06 5,2 C 84 % 1019,9 hPa 0,0 l/m 5,2 km/h (1 Bft) W 274 0 min 0,000 mm 0,0 UV-I 0 W/m 2,7 C 5,2 C 11,3 km/h (2 Bft) 96,00 %
08.03.2017 22:08 5,2 C 84 % 1020,0 hPa 0,0 l/m 5,2 km/h (1 Bft) SW 226 0 min 0,000 mm 0,0 UV-I 0 W/m 2,7 C 5,2 C 8,0 km/h (2 Bft) 100,00 %
08.03.2017 22:10 5,2 C 83 % 1020,0 hPa 0,0 l/m 7,6 km/h (2 Bft) W 267 0 min 0,000 mm 0,0 UV-I 0 W/m 2,6 C 4,1 C 12,9 km/h (3 Bft) 97,56 %
08.03.2017 22:12 5,3 C 82 % 1020,0 hPa 0,0 l/m 8,7 km/h (2 Bft) SW 234 0 min 0,000 mm 0,0 UV-I 0 W/m 2,5 C 3,4 C 12,9 km/h (3 Bft) 96,00 %
08.03.2017 22:14 5,3 C 83 % 1020,1 hPa 0,0 l/m 8,3 km/h (2 Bft) S-SW 208 0 min 0,000 mm 0,0 UV-I 0 W/m 2,7 C 3,7 C 12,9 km/h (3 Bft) 100,00 %
08.03.2017 22:16 5,3 C 83 % 1020,1 hPa 0,0 l/m 8,6 km/h (2 Bft) S-SW 209 0 min 0,000 mm 0,0 UV-I 0 W/m 2,7 C 3,4 C 12,9 km/h (3 Bft) 97,73 %
08.03.2017 22:18 5,3 C 83 % 1020,1 hPa 0,0 l/m 7,5 km/h (2 Bft) W-SW 248 0 min 0,000 mm 0,0 UV-I 0 W/m 2,7 C 4,3 C 12,9 km/h (3 Bft) 100,00 %
08.03.2017 22:20 5,3 C 83 % 1020,1 hPa 0,2 l/m 6,7 km/h (2 Bft) W-SW 248 0 min 0,000 mm 0,0 UV-I 0 W/m 2,7 C 5,1 C 9,7 km/h (2 Bft) 98,63 %
08.03.2017 22:22 5,3 C 84 % 1020,0 hPa 0,0 l/m 3,6 km/h (1 Bft) W-SW 242 0 min 0,000 mm 0,0 UV-I 0 W/m 2,8 C 5,3 C 6,4 km/h (2 Bft) 98,00 %
08.03.2017 22:24 5,2 C 84 % 1020,0 hPa 0,0 l/m 6,3 km/h (2 Bft) SW 232 0 min 0,000 mm 0,0 UV-I 0 W/m 2,7 C 5,2 C 12,9 km/h (3 Bft) 100,00 %
08.03.2017 22:26 5,2 C 84 % 1019,9 hPa 0,0 l/m 4,5 km/h (1 Bft) W 269 0 min 0,000 mm 0,0 UV-I 0 W/m 2,7 C 5,2 C 8,0 km/h (2 Bft) 98,08 %
08.03.2017 22:28 5,2 C 85 % 1019,9 hPa 0,2 l/m 3,9 km/h (1 Bft) SW 236 0 min 0,000 mm 0,0 UV-I 0 W/m 2,9 C 5,2 C 6,4 km/h (2 Bft) 100,00 %
08.03.2017 22:30 5,1 C 85 % 1019,9 hPa 0,0 l/m 5,0 km/h (1 Bft) W 265 0 min 0,000 mm 0,0 UV-I 0 W/m 2,8 C 5,1 C 6,4 km/h (2 Bft) 100,00 %
08.03.2017 22:32 5,1 C 86 % 1019,9 hPa 0,0 l/m 6,5 km/h (2 Bft) W 274 0 min 0,000 mm 0,0 UV-I 0 W/m 3,0 C 5,0 C 9,7 km/h (2 Bft) 97,92 %
08.03.2017 22:34 5,1 C 86 % 1019,9 hPa 0,0 l/m 6,1 km/h (2 Bft) W-NW 284 0 min 0,000 mm 0,0 UV-I 0 W/m 3,0 C 5,1 C 12,9 km/h (3 Bft) 100,00 %
08.03.2017 22:36 5,1 C 86 % 1019,9 hPa 0,0 l/m 7,1 km/h (2 Bft) W-SW 248 0 min 0,000 mm 0,0 UV-I 0 W/m 3,0 C 4,5 C 11,3 km/h (2 Bft) 97,87 %
08.03.2017 22:38 5,1 C 86 % 1019,9 hPa 0,0 l/m 6,2 km/h (2 Bft) SW 227 0 min 0,000 mm 0,0 UV-I 0 W/m 3,0 C 5,1 C 11,3 km/h (2 Bft) 96,00 %
08.03.2017 22:40 5,2 C 85 % 1019,9 hPa 0,2 l/m 7,4 km/h (2 Bft) W-SW 250 0 min 0,000 mm 0,0 UV-I 0 W/m 2,9 C 4,3 C 14,5 km/h (3 Bft) 100,00 %
08.03.2017 22:42 5,2 C 85 % 1019,8 hPa 0,0 l/m 5,8 km/h (2 Bft) W-SW 238 0 min 0,000 mm 0,0 UV-I 0 W/m 2,9 C 5,2 C 9,7 km/h (2 Bft) 94,74 %
08.03.2017 22:44 5,3 C 85 % 1019,8 hPa 0,0 l/m 6,3 km/h (2 Bft) SW 216 0 min 0,000 mm 0,0 UV-I 0 W/m 3,0 C 5,3 C 11,3 km/h (2 Bft) 98,00 %
08.03.2017 22:46 5,3 C 86 % 1019,8 hPa 0,0 l/m 5,7 km/h (1 Bft) SW 233 0 min 0,000 mm 0,0 UV-I 0 W/m 3,2 C 5,3 C 9,7 km/h (2 Bft) 93,10 %
08.03.2017 22:48 5,3 C 86 % 1019,8 hPa 0,2 l/m 7,3 km/h (2 Bft) S-SW 193 0 min 0,000 mm 0,0 UV-I 0 W/m 3,2 C 4,5 C 9,7 km/h (2 Bft) 98,53 %
08.03.2017 22:50 5,3 C 85 % 1019,7 hPa 0,0 l/m 10,2 km/h (2 Bft) W-SW 250 0 min 0,000 mm 0,0 UV-I 0 W/m 3,0 C 2,3 C 17,7 km/h (3 Bft) 97,87 %
08.03.2017 22:52 5,3 C 85 % 1019,8 hPa 0,0 l/m 8,5 km/h (2 Bft) S-SW 204 0 min 0,000 mm 0,0 UV-I 0 W/m 3,0 C 3,5 C 12,9 km/h (3 Bft) 97,37 %
08.03.2017 22:54 5,4 C 85 % 1019,8 hPa 0,0 l/m 8,0 km/h (2 Bft) S-SW 211 0 min 0,000 mm 0,0 UV-I 0 W/m 3,1 C 4,0 C 12,9 km/h (3 Bft) 100,00 %
08.03.2017 22:56 5,4 C 85 % 1019,7 hPa 0,0 l/m 7,1 km/h (2 Bft) W-SW 254 0 min 0,000 mm 0,0 UV-I 0 W/m 3,1 C 4,8 C 11,3 km/h (2 Bft) 95,12 %
08.03.2017 22:58 5,4 C 85 % 1019,6 hPa 0,0 l/m 9,8 km/h (2 Bft) S-SW 203 0 min 0,000 mm 0,0 UV-I 0 W/m 3,1 C 2,7 C 19,3 km/h (3 Bft) 98,15 %
08.03.2017 23:00 5,4 C 85 % 1019,7 hPa 0,2 l/m 8,8 km/h (2 Bft) S-SW 205 0 min 0,000 mm 0,0 UV-I 0 W/m 3,1 C 3,4 C 12,9 km/h (3 Bft) 97,56 %
08.03.2017 23:02 5,4 C 85 % 1019,6 hPa 0,0 l/m 4,7 km/h (1 Bft) S-SW 205 0 min 0,000 mm 0,0 UV-I 0 W/m 3,1 C 5,4 C 9,7 km/h (2 Bft) 97,78 %
08.03.2017 23:04 5,5 C 85 % 1019,6 hPa 0,0 l/m 7,1 km/h (2 Bft) SW 225 0 min 0,000 mm 0,0 UV-I 0 W/m 3,2 C 4,9 C 9,7 km/h (2 Bft) 97,87 %
08.03.2017 23:06 5,5 C 85 % 1019,6 hPa 0,0 l/m 4,4 km/h (1 Bft) S-SW 205 0 min 0,000 mm 0,0 UV-I 0 W/m 3,2 C 5,5 C 8,0 km/h (2 Bft) 98,00 %
08.03.2017 23:08 5,5 C 85 % 1019,6 hPa 0,0 l/m 3,1 km/h (1 Bft) S-SW 205 0 min 0,000 mm 0,0 UV-I 0 W/m 3,2 C 5,5 C 4,8 km/h (1 Bft) 98,00 %
08.03.2017 23:10 5,5 C 86 % 1019,5 hPa 0,2 l/m 1,4 km/h (1 Bft) S-SW 205 0 min 0,000 mm 0,0 UV-I 0 W/m 3,3 C 5,5 C 4,8 km/h (1 Bft) 97,73 %
08.03.2017 23:12 5,4 C 86 % 1019,5 hPa 0,0 l/m 2,5 km/h (1 Bft) S-SW 205 0 min 0,000 mm 0,0 UV-I 0 W/m 3,3 C 5,4 C 4,8 km/h (1 Bft) 100,00 %
08.03.2017 23:15 5,4 C 86 % 1019,5 hPa 0,0 l/m 1,6 km/h (1 Bft) S-SW 202 0 min 0,000 mm 0,0 UV-I 0 W/m 3,3 C 5,4 C 4,8 km/h (1 Bft) 98,25 %
08.03.2017 23:18 5,3 C 87 % 1019,4 hPa 0,0 l/m 2,2 km/h (1 Bft) S-SW 197 0 min 0,000 mm 0,0 UV-I 0 W/m 3,3 C 5,3 C 4,8 km/h (1 Bft) 91,67 %
08.03.2017 23:20 5,3 C 87 % 1019,4 hPa 0,0 l/m 1,1 km/h (1 Bft) S-SW 197 0 min 0,000 mm 0,0 UV-I 0 W/m 3,3 C 5,3 C 3,2 km/h (1 Bft) 96,23 %
08.03.2017 23:22 5,2 C 87 % 1019,4 hPa 0,2 l/m 1,3 km/h (1 Bft) S-SW 197 0 min 0,000 mm 0,0 UV-I 0 W/m 3,2 C 5,2 C 1,6 km/h (1 Bft) 94,74 %
08.03.2017 23:24 5,2 C 88 % 1019,4 hPa 0,0 l/m 3,1 km/h (1 Bft) S-SW 197 0 min 0,000 mm 0,0 UV-I 0 W/m 3,4 C 5,2 C 4,8 km/h (1 Bft) 93,18 %
08.03.2017 23:26 5,2 C 88 % 1019,4 hPa 0,0 l/m 3,8 km/h (1 Bft) S-SW 196 0 min 0,000 mm 0,0 UV-I 0 W/m 3,4 C 5,2 C 4,8 km/h (1 Bft) 96,00 %
08.03.2017 23:28 5,1 C 88 % 1019,2 hPa 0,0 l/m 3,2 km/h (1 Bft) SO 146 0 min 0,000 mm 0,0 UV-I 0 W/m 3,3 C 5,1 C 6,4 km/h (2 Bft) 92,00 %
08.03.2017 23:30 5,1 C 89 % 1019,4 hPa 0,2 l/m 3,6 km/h (1 Bft) W-SW 249 0 min 0,000 mm 0,0 UV-I 0 W/m 3,4 C 5,1 C 6,4 km/h (2 Bft) 92,45 %
08.03.2017 23:32 5,1 C 89 % 1019,4 hPa 0,0 l/m 3,8 km/h (1 Bft) W-SW 251 0 min 0,000 mm 0,0 UV-I 0 W/m 3,4 C 5,1 C 4,8 km/h (1 Bft) 95,45 %
08.03.2017 23:34 5,1 C 89 % 1019,6 hPa 0,0 l/m 4,9 km/h (1 Bft) W-SW 242 0 min 0,000 mm 0,0 UV-I 0 W/m 3,4 C 5,1 C 9,7 km/h (2 Bft) 89,74 %
08.03.2017 23:36 5,0 C 89 % 1019,5 hPa 0,0 l/m 2,4 km/h (1 Bft) W-SW 242 0 min 0,000 mm 0,0 UV-I 0 W/m 3,3 C 5,0 C 4,8 km/h (1 Bft) 95,12 %
08.03.2017 23:38 4,9 C 90 % 1019,4 hPa 0,0 l/m 2,4 km/h (1 Bft) W-SW 242 0 min 0,000 mm 0,0 UV-I 0 W/m 3,4 C 4,9 C 4,8 km/h (1 Bft) 94,92 %
08.03.2017 23:40 4,9 C 90 % 1019,3 hPa 0,0 l/m 3,4 km/h (1 Bft) SW 221 0 min 0,000 mm 0,0 UV-I 0 W/m 3,4 C 4,9 C 4,8 km/h (1 Bft) 89,36 %
08.03.2017 23:42 4,9 C 91 % 1019,3 hPa 0,2 l/m 2,3 km/h (1 Bft) SW 221 0 min 0,000 mm 0,0 UV-I 0 W/m 3,6 C 4,9 C 4,8 km/h (1 Bft) 96,00 %
08.03.2017 23:44 4,9 C 91 % 1019,3 hPa 0,0 l/m 5,0 km/h (1 Bft) SW 227 0 min 0,000 mm 0,0 UV-I 0 W/m 3,6 C 4,9 C 9,7 km/h (2 Bft) 92,11 %
08.03.2017 23:46 4,8 C 91 % 1019,2 hPa 0,0 l/m 4,9 km/h (1 Bft) S-SW 200 0 min 0,000 mm 0,0 UV-I 0 W/m 3,5 C 4,8 C 8,0 km/h (2 Bft) 95,74 %
08.03.2017 23:48 4,8 C 91 % 1019,1 hPa 0,0 l/m 2,5 km/h (1 Bft) S-SO 148 0 min 0,000 mm 0,0 UV-I 0 W/m 3,5 C 4,8 C 4,8 km/h (1 Bft) 92,86 %
08.03.2017 23:50 4,8 C 91 % 1019,2 hPa 0,0 l/m 4,8 km/h (1 Bft) S-SO 165 0 min 0,000 mm 0,0 UV-I 0 W/m 3,5 C 4,8 C 9,7 km/h (2 Bft) 94,74 %
08.03.2017 23:52 4,9 C 91 % 1018,9 hPa 0,0 l/m 7,1 km/h (2 Bft) S-SO 165 0 min 0,000 mm 0,0 UV-I 0 W/m 3,6 C 4,3 C 14,5 km/h (3 Bft) 96,00 %
08.03.2017 23:54 4,9 C 91 % 1019,0 hPa 0,0 l/m 3,5 km/h (1 Bft) S-SO 161 0 min 0,000 mm 0,0 UV-I 0 W/m 3,6 C 4,9 C 6,4 km/h (2 Bft) 97,73 %
08.03.2017 23:56 4,9 C 90 % 1019,0 hPa 0,0 l/m 2,3 km/h (1 Bft) S-SO 162 0 min 0,000 mm 0,0 UV-I 0 W/m 3,4 C 4,9 C 6,4 km/h (2 Bft) 96,00 %
08.03.2017 23:58 4,9 C 90 % 1019,0 hPa 0,0 l/m 0,1 km/h (0 Bft) S-SO 162 0 min 0,000 mm 0,0 UV-I 0 W/m 3,4 C 4,9 C 1,6 km/h (1 Bft) 95,74 %
_ Min-Zeit 00:22 16:14 23:52 - 11:36 - - - - - - 16:14 00:34 11:36 00:02
Minimum _ 3,2 C 54 % 1018,9 hPa - 0,1 km/h (0 Bft) - - - - - - 0,1 C -3,0 C 1,6 km/h (1 Bft) 22,22 %
_ Max-Zeit 14:24 07:04 10:06 22:20 00:34 - - 06:42 13:00 12:12 12:52 12:06 14:26 00:34 00:18
Maximum _ 9,3 C 93 % 1025,3 hPa 0,2 l/m 14,8 km/h
SW (3 Bft)
- - 2 min 0,280 mm 2,0 UV-I 746 W/m 4,0 C 9,2 C 22,5 km/h
SW (4 Bft)
100,00 %
Durchschnitt _ 5,6 C 81 % 1022,4 hPa #1,8 l/m 5,8 km/h (2 Bft) W-SW - #5:30 h #1,397 mm 1,1 UV-I 235 W/m 2,4 C 5,0 C 9,5 km/h (2 Bft) 96,69 %